     2.10           OBSERVATION DATA    G (GPS)             RINEX VERSION / TYPE
teqc 2002Mar14 Lou Estey 20020315 16:11:13UTC               PGM / RUN BY / DATE
Solaris 2.7|Ultra 2|cc SC5.0|=+-|*Sparc                     COMMENT
CHET                                                        MARKER NAME
MBL -Unknown-                                               OBSERVER / AGENCY
908 ASHTECH LM-XII3 7C                                      REC # / TYPE / VERS
636 -Unknown-                                               ANT # / TYPE
   179581.3000 -6048070.2600  2010448.3800                  APPROX POSITION XYZ
        0.1504        0.0000        0.0000                  ANTENNA: DELTA H/E/N
     1     1                                                WAVELENGTH FACT L1/2
     5    L1    L2    C1    D1    D2                        # / TYPES OF OBSERV
SNR is mapped to RINEX snr flag value [1-9]                 COMMENT
L1: 1 -> 1; 10 -> 5; 94 -> 9                                COMMENT
L2: 1 -> 1; 5 -> 5; 40 -> 9                                 COMMENT
  1996     7     1     3     0    0.0000000     GPS         TIME OF FIRST OBS
                                                            END OF HEADER
 96  7  1  3  0  0.0000000  0  6G 1G17G 5G25G23G21
  14389675.397 9    402702.74329  21735829.798        -738.088
  11733410.823 7   2205001.52225  22875920.640       -3902.190
   3065990.417 7    106707.11325  24364244.015        -382.808
   9862215.212 9  -1414298.69229  22301774.103        2183.424
   7408311.577 9    330518.78528  21809462.513        -706.572
  18814685.633 9   -769262.08529  21222463.844        1129.614
 96  7  1  3  0 15.0000000  0  6G 1G17G 5G25G23G21
  14400760.750 9    411340.68929  21737945.643        -739.993
  11791970.478 7   2250632.40525  22887068.272       -3905.716
   3071785.473 7    111222.69325  24365342.035        -389.921
   9829507.475 9  -1439785.23729  22295552.420        2177.652
   7418947.738 9    338806.70028  21811483.084        -711.535
  18797767.884 9   -782444.73629  21219248.810        1126.076
 96  7  1  3  0 30.0000000  0  6G 1G17G 5G25G23G21
  14411874.919 9    420001.07529  21740060.769        -741.987
  11850581.936 7   2296303.66725  22898218.393       -3909.140
   3077689.830 7    115823.50825  24366463.139        -397.336
   9796885.236 9  -1465205.15829  22289345.247        2172.011
   7429656.536 9    347151.23628  21813520.024        -716.343
  18780903.008 9   -795586.20629  21216037.133        1122.575
 96  7  1  3  0 45.0000000  0  6G 1G17G 5G25G23G21
  14423020.492 9    428685.93129  21742182.520        -744.169
  11909244.111 7   2342014.44625  22909382.784       -3912.466
   3083703.423 7    120509.43025  24367608.736        -404.489
   9764346.398 9  -1490560.08129  22283152.285        2166.558
   7440438.801 9    355552.98528  21815574.142        -721.293
  18764089.788 9   -808687.40829  21212836.939        1119.190
 96  7  1  3  1  0.0000000  0  6G 1G17G 5G25G23G21
  14434201.383 9    437398.33429  21744309.248        -746.654
  11967956.152 7   2387764.07025  22920555.390       -3915.906
   3089824.376 6    125278.97725  24368781.314        -411.670
   9731891.114 9  -1515849.90929  22276978.269        2160.789
   7451296.955 8    364013.87728  21817639.443        -726.508
  18747328.070 9   -821748.46929  21209650.984        1115.727
 96  7  1  3  1 15.0000000  0  6G 1G17G 5G25G23G21
  14445419.605 9    446139.81329  21746444.220        -749.139
  12026721.553 8   2433555.29625  22931735.550       -3919.608
   3096051.151 7    130130.97325  24369967.023        -418.629
   9699521.365 9  -1541073.07429  22270818.403        2155.101
   7462231.832 8    372534.56228  21819721.651        -731.566
  18730617.105 9   -834770.01329  21206469.527        1112.325
 96  7  1  3  1 30.0000000  0  6G 1G17G 5G25G23G21
  14456675.723 9    454910.81729  21748586.537        -751.749
  12085544.219 8   2479391.13125  22942930.040       -3923.467
   3102380.603 6    135063.00325  24371172.368        -425.333
   9667240.414 9  -1566227.05629  22264672.268        2149.003
   7473244.400 9    381115.75028  21821815.971        -736.782
  18713957.618 9   -847751.43229  21203298.262        1108.853
 96  7  1  3  1 45.0000000  0  6G 1G17G 5G25G23G21
  14467969.786 9    463711.39629  21750734.430        -754.180
  12144423.045 7   2525270.74725  22954133.644       -3927.120
   3108810.507 7    140073.34825  24372393.753        -431.938
   9635048.989 9  -1591311.28129  22258543.791        2143.185
   7484332.134 9    389755.56328  21823925.641        -741.684
  18697349.983 9   -860692.43429  21200139.049        1105.384
 96  7  1  3  2  0.0000000  0  6G 1G17G 5G25G23G21
  14479301.200 9    472541.07529  21752891.527        -756.606
  12203359.112 7   2571194.95125  22965353.047       -3931.020
   3115339.622 7    145160.98925  24373635.883        -438.477
   9602946.239 9  -1616326.40629  22252437.618        2137.169
   7495493.545 9    398452.75928  21826050.630        -746.557
  18680795.965 9   -873591.67329  21196989.040        1101.836
 96  7  1  3  2 15.0000000  0  6G 1G17G 5G25G23G21
  14490666.295 9    481397.00329  21755054.079        -758.730
  12262353.848 7   2617164.87725  22976578.776       -3934.932
   3121966.328 6    150324.63425  24374894.142        -445.015
   9570934.833 9  -1641270.35328  22246347.754        2131.057
   7506729.662 9    407208.16628  21828189.199        -751.630
  18664295.100 9   -886449.48929  21193848.834        1098.343
 96  7  1  3  2 30.0000000  0  6G 1G17G 5G25G23G21
  14502063.802 9    490278.17729  21757219.720        -761.057
  12321407.268 7   2663180.52025  22987812.808       -3938.953
   3128692.867 6    155566.07425  24376175.425        -451.893
   9539014.512 9  -1666143.32928  22240272.220        2124.924
   7518043.262 9    416023.95828  21830344.857        -756.927
  18647846.683 9   -899266.42929  21190718.491        1094.711
 96  7  1  3  2 45.0000000  0  6G 1G17G 5G25G23G21
  14513495.879 9    499186.28229  21759395.914        -763.236
  12380521.394 7   2709243.45125  22999060.961       -3943.013
   3135519.768 6    160885.72725  24377471.158        -458.316
   9507185.931 9  -1690944.81428  22234213.804        2118.815
   7529438.293 9    424903.18128  21832507.230        -762.503
  18631452.541 9   -912041.09129  21187596.332        1091.110
 96  7  1  3  3  0.0000000  0  6G 1G17G 5G25G23G21
  14524958.952 9    508118.57129  21761578.972        -765.166
  12439696.875 7   2755354.20925  23010323.415       -3946.987
   3142442.389 6    166279.96725  24378792.343        -464.654
   9475448.158 9  -1715675.53128  22228178.832        2112.842
   7540916.356 9    433847.12728  21834696.014        -767.757
  18615112.248 9   -924773.78029  21184488.953        1087.621
 96  7  1  3  3 15.0000000  0  6G 1G17G 5G25G23G21
  14536449.952 9    517072.59129  21763767.907        -766.999
  12498931.541 7   2801511.08425  23021593.872       -3951.056
   3149461.514 6    171749.41125  24380127.229        -471.287
   9443800.606 9  -1740335.96328  22222157.980        2106.767
   7552471.028 9    442850.77528  21836891.335        -772.911
  18598824.874 9   -937465.24329  21181388.950        1083.966
 96  7  1  3  3 30.0000000  0  6G 1G17G 5G25G23G21
  14547965.304 9    526045.59929  21765958.790        -768.393
  12558225.225 7   2847713.96125  23032878.330       -3954.737
   3156577.307 6    177294.19325  24381480.762        -477.502
   9412242.827 9  -1764926.42628  22216149.210        2100.962
   7564101.148 9    451913.20528  21839106.201        -777.805
  18582590.427 9   -950115.45929  21178296.530        1080.609
 96  7  1  3  3 45.0000000  0  6G 1G17G 5G25G23G21
  14559501.014 9    535034.46829  21768155.909        -769.129
  12617571.318 7   2893957.68825  23044168.874       -3957.462
   3163787.425 7    182912.44025  24382850.874        -483.276
   9380772.100 9  -1789449.07928  22210163.224        2095.768
   7575805.241 9    461033.28428  21841334.139        -782.165
  18566406.495 9   -962726.31129  21175220.660        1077.868
 96  7  1  3  4  0.0000000  0  6G 1G17G 5G25G23G21
  14571047.132 9    544031.46929  21770354.018        -770.361
  12676957.620 7   2940232.71825  23055471.349       -3960.816
   3171084.693 7    188598.61825  24384243.889        -489.664
   9349378.094 9  -1813911.93328  22204184.343        2089.955
   7587575.740 9    470205.07528  21843572.030        -787.343
  18550263.291 9   -975305.42429  21172148.117        1074.506
 96  7  1  3  4 15.0000000  0  6G 1G17G 5G25G23G21
  14582611.851 9    553042.93229  21772552.695        -771.562
  12736394.821 7   2986547.44125  23066782.099       -3964.069
   3178480.031 7    194361.17725  24385643.770        -496.333
   9318073.779 9  -1838304.91528  22198227.197        2083.962
   7599424.852 9    479438.15528  21845828.957        -792.510
  18534171.283 9   -987844.63529  21169085.707        1071.115
 96  7  1  3  4 30.0000000  0  6G 1G17G 5G25G23G21
  14594191.985 9    562066.41529  21774752.752        -772.494
  12795878.948 7   3032898.68725  23078101.962       -3967.036
   3185972.367 7    200199.33925  24387076.448        -502.651
   9286857.793 9  -1862629.02728  22192287.499        2078.253
   7611350.997 9    488731.26028  21848099.615        -797.552
  18518129.740 9  -1000344.55029  21166032.591        1067.762
 96  7  1  3  4 45.0000000  0  6G 1G17G 5G25G23G21
  14605786.342 9    571100.97629  21776962.043        -773.366
  12855408.369 7   3079285.23725  23089428.901       -3970.171
   3193559.618 7    206111.52125  24388517.671        -508.870
   9255726.460 9  -1886887.20628  22186365.009        2072.669
   7623351.767 9    498082.51128  21850379.567        -802.414
  18502139.327 9  -1012804.60129  21162988.648        1064.412
 96  7  1  3  5  0.0000000  0  6G 1G17G 5G25G23G21
  14617392.341 9    580144.62229  21779169.205        -774.061
  12914984.660 7   3125708.34725  23100768.041       -3973.252
   3201239.494 7    212095.86925  24389981.677        -515.118
   9224678.360 9  -1911080.51628  22180459.637        2067.104
   7635423.538 9    507489.06828  21852678.166        -807.027
  18486198.723 9  -1025225.84429  21159956.337        1061.075
 96  7  1  3  5 15.0000000  0  6G 1G17G 5G25G23G21
  14629009.929 9    589197.29229  21781378.286        -775.017
  12974608.376 7   3172168.36525  23112111.648       -3976.563
   3209014.537 7    218154.37025  24391460.283        -521.673
   9193714.398 9  -1935208.26528  22174564.788        2061.431
   7647562.732 9    516948.18728  21854990.585        -811.593
  18470307.631 9  -1037608.52429  21156933.350        1057.701
 96  7  1  3  5 30.0000000  0  6G 1G17G 5G25G23G21
  14640640.852 9    598260.35429  21783590.664        -775.827
  13034281.683 7   3218667.01925  23123473.422       -3979.935
   3216886.298 7    224288.18825  24392957.897        -527.929
   9162832.256 9  -1959272.27028  22168686.817        2056.077
   7659770.491 9    526460.73528  21857313.467        -816.244
  18454466.763 9  -1049952.05729  21153918.577        1054.342
 96  7  1  3  5 45.0000000  0  6G 1G17G 5G25G23G21
  14652285.260 9    607333.92529  21785808.169        -776.796
  13094006.306 7   3265205.63825  23134831.689       -3983.263
   3224852.945 7    230495.97525  24394474.577        -534.287
   9132032.625 9  -1983271.97829  22162824.646        2050.533
   7672051.559 9    536030.38728  21859650.169        -821.170
  18438678.558 9  -1062254.54229  21150914.597        1050.774
 96  7  1  3  6  0.0000000  0  6G 1G17G 5G25G23G21
  14663944.239 9    616418.85529  21788028.012        -777.831
  13153780.580 7   3311783.01125  23146209.443       -3986.626
   3232914.754 7    236777.85525  24396006.816        -540.731
   9101316.344 9  -2007206.72529  22156981.151        2044.965
   7684404.857 9    545656.32328  21862000.512        -825.958
  18422944.201 9  -1074515.08129  21147917.871        1047.073
 96  7  1  3  6 15.0000000  0  6G 1G17G 5G25G23G21
  14675626.548 9    625521.95529  21790250.643        -779.619
  13213612.046 7   3358404.90425  23157599.278       -3990.726
   3241080.672 6    243140.89025  24397558.752        -547.862
   9070689.403 9  -2031071.87529  22151150.907        2038.749
   7696835.639 9    555342.65428  21864366.774        -831.257
  18407273.080 9  -1086726.34729  21144939.073        1042.643
 96  7  1  3  6 30.0000000  0  6G 1G17G 5G25G23G21
  14687329.239 9    634640.94229  21792473.784        -780.832
  13273497.868 7   3405069.18525  23168990.492       -3994.032
   3249346.362 6    249581.69325  24399133.351        -554.193
   9040147.117 9  -2054871.04729  22145341.289        2033.482
   7709337.779 9    565084.61328  21866745.507        -835.738
  18391660.753 9  -1098891.78229  21141967.051        1038.909
 96  7  1  3  6 45.0000000  0  6G 1G17G 5G25G23G21
  14699051.509 9    643775.18629  21794710.116        -782.207
  13333434.947 7   3451773.44325  23180390.310       -3997.451
   3257708.968 6    256098.01125  24400725.159        -560.815
   9009683.670 9  -2078608.77929  22139543.633        2028.301
   7721907.397 8    574879.08928  21869133.054        -840.160
  18376105.512 9  -1111012.74629  21139006.870        1035.125
 96  7  1  3  7  0.0000000  0  6G 1G17G 5G25G23G21
  14710795.039 9    652926.00129  21796944.080        -783.692
  13393421.110 7   3498515.88725  23191814.291       -4000.708
   3266170.078 7    262691.05225  24402333.156        -567.478
   8979298.630 8  -2102285.43929  22133757.998        2022.934
   7734541.947 8    584724.20828  21871540.508        -844.544
  18360607.355 9  -1123089.23429  21136056.612        1031.289
 96  7  1  3  7 15.0000000  0  6G 1G17G 5G25G23G21
  14722561.821 9    662094.92229  21799184.249        -785.243
  13453453.918 7   3545294.68225  23203237.793       -4003.560
   3274731.798 7    269362.48625  24403968.884        -574.099
   8948996.058 9  -2125897.81329  22127994.968        2017.405
   7747243.749 8    594621.71128  21873957.824        -849.047
  18345167.016 9  -1135120.65229  21133120.265        1027.455
 96  7  1  3  7 30.0000000  0  6G 1G17G 5G25G23G21
  14734353.468 9    671283.21229  21801429.394        -786.950
  13513529.353 7   3592106.71125  23214665.611       -4006.360
   3283391.820 6    276110.52625  24405613.905        -580.641
   8918777.508 9  -2149444.73729  22122245.998        2011.738
   7760014.638 9    604573.04228  21876386.623        -853.737
  18329783.983 9  -1147107.44429  21130192.432        1023.604
 96  7  1  3  7 45.0000000  0  6G 1G17G 5G25G23G21
  14746167.441 9    680488.90829  21803674.900        -788.251
  13573641.627 7   3638947.45225  23226109.829       -4008.528
   3292149.133 7    282934.41025  24407280.361        -587.134
   8888644.211 9  -2172925.20929  22116509.109        2005.971
   7772855.648 9    614579.02128  21878829.482        -858.381
  18314458.390 9  -1159049.45529  21127275.781        1019.807
 96  7  1  3  8  0.0000000  0  6G 1G17G 5G25G23G21
  14758001.624 9    689710.36029  21805925.112        -789.611
  13633783.477 7   3685811.21925  23237549.819       -4010.382
   3301005.621 6    289835.58225  24408967.683        -593.752
   8858599.383 9  -2196336.76429  22110794.106        2000.050
   7785765.306 9    624638.49728  21881288.649        -862.849
  18299188.696 9  -1170947.90729  21124372.531        1016.168
 96  7  1  3  8 15.0000000  0  6G 1G17G 5G25G23G21
  14769854.932 9    698946.71729  21808183.239        -790.840
  13693953.221 7   3732696.72425  23249002.341       -4012.315
   3309961.881 7    296814.45225  24410665.948        -600.440
   8828640.449 9  -2219681.37729  22105092.863        1994.383
   7798740.943 9    634749.37628  21883758.669        -867.324
  18283972.965 9  -1182804.30929  21121472.939        1012.579
 96  7  1  3  8 30.0000000  0  6G 1G17G 5G25G23G21
  14781725.437 9    708196.45029  21810442.145        -791.822
  13754153.189 7   3779605.78025  23260459.269       -4014.286
   3319017.945 7    303871.14825  24412394.371        -606.898
   8798768.450 9  -2242958.26229  22099405.710        1988.678
   7811787.112 9    644915.24828  21886239.002        -872.100
  18268811.048 9  -1194618.79829  21118591.034        1009.106
 96  7  1  3  8 45.0000000  0  6G 1G17G 5G25G23G21
  14793609.892 9    717457.07729  21812702.640        -792.759
  13814381.443 7   3826536.89125  23271917.966       -4016.082
   3328170.131 7    311002.73125  24414133.617        -613.348
   8768981.425 9  -2266168.93729  22093743.350        1982.901
   7824905.696 8    655137.50028  21888734.265        -877.000
  18253701.548 9  -1206392.43029  21115711.887        1005.528
 96  7  1  3  9  0.0000000  0  6G 1G17G 5G25G23G21
  14805508.225 9    726728.51029  21814963.855        -793.745
  13874635.028 7   3873487.73225  23283385.298       -4017.716
   3337419.761 7    318210.21425  24415896.397        -619.896
   8739281.409 9  -2289311.79929  22088091.123        1977.029
   7838097.868 8    665417.11028  21891249.643        -881.982
  18238644.261 9  -1218125.36829  21112851.207        1002.103
 96  7  1  3  9 15.0000000  0  6G 1G17G 5G25G23G21
  14817422.317 9    736012.22029  21817232.684        -794.839
  13934914.961 7   3920459.09725  23294857.965       -4019.584
   3346767.605 7    325494.25925  24417672.307        -626.394
   8709672.562 9  -2312383.60529  22082454.005        1970.829
   7851366.351 8    675756.17928  21893772.307        -887.212
  18223638.623 9  -1229818.08029  21109991.607         998.663
 96  7  1  3  9 30.0000000  0  6G 1G17G 5G25G23G21
  14829353.367 9    745309.14329  21819499.835        -795.994
  13995224.096 7   3967453.23925  23306328.175       -4021.681
   3356212.924 7    332854.22125  24419465.486        -632.966
   8680156.492 9  -2335383.14229  22076837.603        1964.696
   7864715.071 9    686157.76728  21896311.699        -892.571
  18208684.149 9  -1241470.91229  21107147.626         995.257
 96  7  1  3  9 45.0000000  0  6G 1G17G 5G25G23G21
  14841300.080 9    754618.27429  21821776.249        -796.857
  14055566.060 7   4014472.93025  23317810.855       -4023.862
   3365757.491 6    340291.51325  24421283.008        -639.631
   8650728.888 9  -2358313.74529  22071238.260        1958.958
   7878142.554 9    696620.73828  21898871.537        -897.742
  18193780.908 9  -1253083.81029  21104312.429         991.830
 96  7  1  3 10  0.0000000  0  6G 1G17G 5G25G23G21
  14853259.160 9    763937.04129  21824050.924        -797.709
  14115940.925 7   4061518.26625  23329301.151       -4026.191
   3375400.761 7    347805.76425  24423122.774        -646.077
   8621387.811 9  -2381176.89829  22065655.614        1953.297
   7891647.188 9    707143.83728  21901436.141        -902.838
  18178929.073 9  -1264656.66729  21101486.825         988.486
 96  7  1  3 10 15.0000000  0  6G 1G17G 5G25G23G21
  14865232.683 9    773267.05129  21826329.916        -798.748
  14176352.334 7   4108592.06525  23340798.791       -4028.715
   3385139.153 7    355394.09925  24424974.082        -652.275
   8592129.407 9  -2403975.67329  22060081.873        1947.836
   7905229.116 9    717727.15528  21904022.661        -908.103
  18164127.460 9  -1276190.38829  21098666.047         985.007
 96  7  1  3 10 30.0000000  0  6G 1G17G 5G25G23G21
  14877222.589 9    782609.83729  21828611.007        -799.885
  14236804.026 7   4155697.28625  23352299.579       -4031.402
   3394969.964 7    363054.47325  24426841.010        -658.389
   8562952.834 9  -2426710.64529  22054533.134        1942.463
   7918890.469 9    728372.36128  21906623.240        -913.439
  18149379.107 9  -1287682.61729  21095861.159         981.521
 96  7  1  3 10 45.0000000  0  6G 1G17G 5G25G23G21
  14889230.409 9    791966.58029  21830896.865        -801.206
  14297294.977 7   4202833.11625  23363815.957       -4034.015
   3404891.697 7    370785.66825  24428736.088        -664.557
   8533856.617 9  -2449383.01929  22048995.338        1937.111
   7932631.287 9    739079.50028  21909237.850        -918.622
  18134682.199 9  -1299134.74729  21093066.224         978.080
 96  7  1  3 11  0.0000000  0  6G 1G17G 5G25G23G21
  14901259.603 9    801339.97729  21833188.238        -802.751
  14357824.752 7   4249999.16025  23375331.615       -4036.632
   3414907.915 7    378590.51225  24430639.021        -671.041
   8504841.096 9  -2471992.50929  22043472.621        1931.610
   7946449.021 9    749846.55527  21911868.379        -923.745
  18120037.142 9  -1310546.47429  21090279.953         974.617
 96  7  1  3 11 15.0000000  0  6G 1G17G 5G25G23G21
  14913313.639 9    810732.73329  21835483.449        -804.331
  14418395.922 7   4297197.50625  23386860.763       -4039.513
   3425020.391 7    386470.34825  24432569.894        -677.194
   8475908.704 9  -2494537.21429  22037972.989        1926.108
   7960346.000 9    760675.35327  21914511.290        -929.114
  18105444.442 9  -1321917.41429  21087500.547         971.151
 96  7  1  3 11 30.0000000  0  6G 1G17G 5G25G23G21
  14925390.054 9    820142.93829  21837777.791        -805.751
  14479011.232 7   4344430.21825  23398387.184       -4042.452
   3435225.229 7    394422.17525  24434512.399        -683.372
   8447059.030 9  -2517017.48029  22032483.699        1920.609
   7974325.416 9    771568.37927  21917168.920        -934.742
  18090905.378 9  -1333246.55529  21084736.940         967.451
 96  7  1  3 11 45.0000000  0  6G 1G17G 5G25G23G21
  14937485.119 9    829567.67529  21840076.030        -806.874
  14539668.613 7   4391695.68225  23409932.341       -4045.153
   3445521.532 7    402445.29125  24436464.618        -689.449
   8418288.446 9  -2539436.11529  22027003.913        1915.519
   7988385.490 9    782524.29327  21919848.015        -939.904
  18076421.396 9  -1344532.77929  21081978.910         963.802
 96  7  1  3 12  0.0000000  0  6G 1G17G 5G25G23G21
  14949596.089 9    839004.78629  21842384.462        -807.960
  14600363.949 7   4438990.77625  23421483.464       -4047.552
   3455908.398 7    410538.95725  24438445.496        -695.474
   8389596.724 9  -2561793.31829  22021548.229        1910.014
   8002524.984 9    793542.06428  21922535.445        -945.394
  18061993.545 9  -1355775.25029  21079235.809         959.928
 96  7  1  3 12 15.0000000  0  6G 1G17G 5G25G23G21
  14961724.684 9    848455.64329  21844690.705        -809.186
  14661094.920 7   4486313.59925  23433044.241       -4049.939
   3466387.179 6    418704.21825  24440429.043        -701.659
   8360987.750 9  -2584086.00029  22016102.469        1904.492
   8016747.008 9    804624.16028  21925243.230        -950.865
  18047623.522 9  -1366972.66829  21076495.406         956.076
 96  7  1  3 12 30.0000000  0  6G 1G17G 5G25G23G21
  14973871.297 9    857920.53529  21847000.606        -810.319
  14721861.727 7   4533664.33425  23444607.686       -4052.286
   3476961.339 7    426943.82225  24442447.276        -708.244
   8332464.576 9  -2606311.84029  22010675.776        1898.533
   8031051.050 9    815770.17328  21927966.035        -956.328
  18033312.034 9  -1378124.49229  21073774.999         952.140
 96  7  1  3 12 45.0000000  0  6G 1G17G 5G25G23G21
  14986034.139 9    867398.08329  21849319.201        -811.307
  14782664.521 7   4581043.14125  23456175.987       -4054.701
   3487635.686 7    435261.48725  24444475.852        -715.046
   8304031.470 9  -2628467.49529  22005260.775        1892.515
   8045437.401 9    826980.29728  21930699.693        -961.821
  18019058.976 9  -1389230.74929  21071062.657         948.274
 96  7  1  3 13  0.0000000  0  6G 1G17G 5G25G23G21
  14998210.355 9    876886.04929  21851633.659        -812.220
  14843502.302 7   4628449.21525  23467749.055       -4057.015
   3498414.477 7    443660.50525  24446527.032        -722.150
   8275692.352 9  -2650549.91129  21999867.419        1886.020
   8059905.290 9    838253.96628  21933456.164        -967.261
  18004865.177 9  -1400290.86029  21068362.786         944.189
 96  7  1  3 13 15.0000000  0  6G 1G17G 5G25G23G21
  15010397.949 9    886382.88629  21853955.102        -812.777
  14904374.244 7   4675881.85925  23479336.154       -4059.198
   3509297.661 6    452140.95825  24448602.854        -728.874
   8247450.181 9  -2672556.78929  21994496.127        1879.559
   8074453.861 9    849590.51228  21936220.910        -972.505
  17990732.333 9  -1411303.46729  21065673.768         940.169
 96  7  1  3 13 30.0000000  0  6G 1G17G 5G25G23G21
  15022591.401 9    895884.28329  21856275.076        -813.024
  14965278.360 7   4723339.59225  23490929.158       -4061.360
   3520282.203 7    460700.36125  24450696.215        -735.695
   8219305.403 9  -2694487.78529  21989143.303        1873.085
   8089079.762 9    860987.30828  21939008.560        -977.581
  17976660.468 9  -1422268.54429  21062991.914         936.004
 96  7  1  3 13 45.0010000  0  6G 1G17G 5G25G23G21
  15034787.904 9    905388.05329  21858594.270        -813.098
  15026217.145 7   4770824.34125  23502524.531       -4063.246
   3531371.609 7    469341.50925  24452806.694        -742.758
   8191254.068 9  -2716345.94729  21983804.899        1866.833
   8103779.079 9    872441.30928  21941803.016        -982.175
  17962649.977 9  -1433185.81629  21060329.937         931.939
 96  7  1  3 14  0.0010000  0  6G 1G17G 5G25G23G21
  15046986.200 9    914893.21929  21860916.972        -813.319
  15087180.734 7   4818328.44125  23514125.540       -4065.200
   3542567.024 7    478065.18725  24454930.904        -749.888
   8163299.770 9  -2738128.51929  21978482.953        1860.357
   8118546.262 9    883948.21328  21944610.572        -986.841
  17948701.721 9  -1444054.58729  21057675.904         927.866
 96  7  1  3 14 15.0010000  0  6G 1G17G 5G25G23G21
  15059186.207 9    924399.71229  21863236.826        -813.426
  15148173.460 7   4865855.23225  23525726.129       -4067.260
   3553869.326 7    486872.19325  24457079.936        -757.030
   8135444.270 9  -2759834.11829  21973180.044        1853.735
   8133384.559 9    895510.51728  21947439.474        -991.503
  17934814.237 9  -1454875.99729  21055030.895         923.868
 96  7  1  3 14 30.0010000  0  6G 1G17G 5G25G23G21
  15071389.575 9    933908.83029  21865561.267        -813.683
  15209200.124 7   4913408.47025  23537343.416       -4069.672
   3565278.376 7    495762.33525  24459256.009        -764.141
   8107687.676 9  -2781462.61629  21967903.367        1847.217
   8148291.173 9    907126.05828  21950274.851        -996.008
  17920986.026 9  -1465651.22329  21052401.596         919.906
 96  7  1  3 14 45.0010000  0  6G 1G17G 5G25G23G21
  15083596.509 9    943420.73729  21867884.509        -814.004
  15270263.488 7   4960990.31025  23548962.502       -4072.158
   3576791.853 7    504733.90425  24461449.351        -771.048
   8080027.127 9  -2803016.28429  21962635.954        1840.868
   8163264.735 9    918793.76228  21953123.899       -1000.603
  17907217.405 9  -1476380.02629  21049782.669         915.886
 96  7  1  3 15  0.0010000  0  6G 1G17G 5G25G23G21
  15095807.414 9    952935.72229  21870207.390        -814.164
  15331362.481 7   5008599.92225  23560591.542       -4074.342
   3588407.427 6    513784.99225  24463657.622        -777.657
   8052458.837 9  -2824498.06229  21957392.434        1834.863
   8178307.505 9    930515.40328  21955989.944       -1005.065
  17893508.205 9  -1487062.51129  21047171.716         912.024
 96  7  1  3 15 15.0010000  0  6G 1G17G 5G25G23G21
  15108021.044 9    962452.83629  21872532.851        -814.498
  15392492.332 7   5056233.55625  23572220.491       -4076.367
   3600119.606 6    522911.34525  24465888.768        -784.065
   8024979.971 9  -2845910.15929  21952163.753        1828.954
   8193415.974 9    942288.22528  21958860.787       -1009.534
  17879855.897 9  -1497700.67829  21044574.674         908.210
 96  7  1  3 15 30.0010000  0  6G 1G17G 5G25G23G21
  15120241.148 9    971975.00829  21874858.551        -814.913
  15453654.051 7   5103892.02825  23583862.002       -4078.455
   3611927.040 7    532111.95325  24468134.753        -790.350
   7997590.366 9  -2867252.70129  21946952.341        1822.987
   8208593.935 9    954115.20128  21961749.377       -1014.219
  17866262.990 9  -1508292.55029  21041987.135         904.189
 96  7  1  3 15 45.0010000  0  6G 1G17G 5G25G23G21
  15132468.552 9    981502.85129  21877179.933        -815.383
  15514846.424 7   5151574.43825  23595506.960       -4080.404
   3623831.089 6    541387.84125  24470387.843        -796.805
   7970287.801 9  -2888527.42929  21941754.659        1817.374
   8223843.319 9    965997.82428  21964650.109       -1018.981
  17852730.041 9  -1518837.70129  21039413.117         900.242
 96  7  1  3 16  0.0010000  0  6G 1G17G 5G25G23G21
  15144705.588 9    991038.21329  21879510.670        -816.153
  15576068.375 7   5199279.83925  23607157.195       -4082.371
   3635832.666 7    550739.74225  24472680.176        -803.384
   7943072.813 9  -2909733.90329  21936574.276        1811.329
   8239166.931 9    977938.30428  21967567.120       -1024.119
  17839257.991 9  -1529335.39629  21036846.744         896.125
 96  7  1  3 16 15.0010000  0  6G 1G17G 5G25G23G21
  15156953.035 9   1000581.68129  21881842.576        -816.906
  15637317.406 7   5247006.31525  23618805.691       -4084.155
   3647931.428 7    560167.33825  24474981.473        -809.894
   7915948.406 9  -2930869.80529  21931415.087        1805.192
   8254567.344 9    989938.60728  21970498.311       -1029.326
  17825847.079 9  -1539785.46029  21034296.709         891.911
 96  7  1  3 16 30.0010000  0  6G 1G17G 5G25G23G21
  15169212.679 9   1010134.66229  21884175.620        -817.738
  15698592.842 7   5294753.43825  23630471.305       -4085.816
   3660128.729 7    569671.74725  24477299.738        -816.360
   7888914.905 9  -2951934.86629  21926271.788        1799.361
   8270045.495 9   1001999.51428  21973442.272       -1034.367
  17812499.727 9  -1550185.99929  21031753.450         887.788
 96  7  1  3 16 45.0010000  0  6G 1G17G 5G25G23G21
  15181485.921 9   1019698.23629  21886510.284        -818.588
  15759891.683 7   5342518.76825  23642135.630       -4087.172
   3672425.619 7    579253.76125  24479640.158        -823.105
   7861968.711 9  -2972931.88829  21921141.739        1793.521
   8285601.867 9   1014121.36828  21976403.652       -1039.788
  17799216.119 9  -1560536.84529  21029227.279         883.421
 96  7  1  3 17  0.0010000  0  6G 1G17G 5G25G23G21
  15193770.253 9   1029270.45129  21888849.625        -819.361
  15821206.999 7   5390296.92625  23653801.304       -4088.153
   3684823.259 7    588914.27725  24482001.683        -829.950
   7835112.512 9  -2993858.78529  21916029.349        1787.270
   8301241.786 9   1026308.29828  21979378.613       -1045.533
  17785997.921 9  -1570836.74529  21026711.990         879.010
 96  7  1  3 17 15.0010000  0  6G 1G17G 5G25G23G21
  15206066.063 9   1038851.59929  21891190.764        -820.131
  15882536.455 7   5438086.08625  23665476.242       -4089.030
   3697322.875 7    598654.21925  24484381.495        -836.677
   7808350.849 9  -3014712.02429  21910937.913        1780.941
   8316966.466 9   1038561.28928  21982371.411       -1051.102
  17772845.982 9  -1581085.00629  21024208.423         874.553
 96  7  1  3 17 30.0010000  0  6G 1G17G 5G25G23G21
  15218375.307 9   1048443.22529  21893532.413        -821.116
  15943881.591 7   5485887.45025  23677146.443       -4090.287
   3709924.209 6    608473.47225  24486778.426        -843.494
   7781682.777 9  -3035492.32429  21905865.335        1774.830
   8332775.521 9   1050880.03028  21985382.107       -1056.827
  17759762.914 9  -1591279.60529  21021716.578         869.800
 96  7  1  3 17 45.0010000  0  6G 1G17G 5G25G23G21
  15230698.554 9   1058045.75729  21895879.008        -821.914
  16005245.283 7   5533703.30925  23688828.006       -4091.493
   3722629.250 7    618373.53225  24489197.361        -850.379
   7755106.571 9  -3056201.05629  21900807.387        1768.738
   8348670.395 9   1063265.62628  21988403.595       -1062.419
  17746751.431 9  -1601418.41729  21019244.700         865.186
 96  7  1  3 18  0.0010000  0  6G 1G17G 5G25G23G21
  15243032.891 9   1067656.93829  21898219.398        -822.632
  16066626.705 7   5581532.98325  23700502.404       -4092.707
   3735437.692 6    628354.15425  24491630.897        -857.289
   7728621.251 9  -3076838.95429  21895763.169        1762.671
   8364648.758 9   1075716.28928  21991446.728       -1068.062
  17733808.760 9  -1611503.62029  21016782.115         860.518
 96  7  1  3 18 15.0010000  0  6G 1G17G 5G25G23G21
  15255376.648 9   1077275.45029  21900576.966        -823.295
  16128025.151 7   5629375.95425  23712189.183       -4093.809
   3748347.032 6    638413.33825  24494088.206        -863.938
   7702225.335 9  -3097407.19629  21890744.853        1756.710
   8380711.676 9   1088232.85628  21994504.581       -1073.740
  17720933.315 9  -1621536.43029  21014330.412         856.184
 96  7  1  3 18 30.0010000  0  6G 1G17G 5G25G23G21
  15267732.173 9   1086903.15129  21902922.842        -824.168
  16189441.530 7   5677232.87025  23723879.140       -4095.164
   3761354.433 6    648548.99925  24496562.962        -870.348
   7675918.717 9  -3117905.83929  21885735.261        1750.801
   8396860.020 9   1100815.96428  21997574.276       -1079.426
  17708122.863 9  -1631518.58829  21011895.138         851.875
 96  7  1  3 18 45.0010000  0  6G 1G17G 5G25G23G21
  15280100.594 9   1096540.87829  21905276.273        -824.957
  16250879.332 7   5725106.47125  23735565.590       -4096.572
   3774457.811 6    658759.42225  24499053.758        -876.766
   7649700.906 9  -3138335.30729  21880747.853        1744.917
   8413092.954 9   1113464.99428  22000664.417       -1084.913
  17695375.857 9  -1641451.31229  21009468.498         847.742
 96  7  1  3 19  0.0010000  0  6G 1G17G 5G25G23G21
  15292479.514 9   1106186.79129  21907634.260        -825.513
  16312338.096 7   5772996.42325  23747258.845       -4097.932
   3787654.750 7    669042.76425  24501567.907        -882.770
   7623572.982 9  -3158694.72529  21875778.464        1738.809
   8429407.536 9   1126177.65328  22003771.496       -1090.277
  17682690.378 9  -1651336.10829  21007050.791         843.698
 96  7  1  3 19 15.0010000  0  6G 1G17G 5G25G23G21
  15304868.086 9   1115840.23929  21909991.439        -826.340
  16373819.719 7   5820904.17725  23758963.612       -4099.651
   3800942.504 7    679396.88525  24504105.441        -888.893
   7597535.885 9  -3178983.35529  21870822.415        1732.830
   8445800.102 8   1138951.08928  22006888.018       -1095.382
  17670065.945 9  -1661173.31229  21004653.291         839.518
 96  7  1  3 19 30.0010000  0  6G 1G17G 5G25G23G21
  15317268.396 9   1125502.82629  21912349.876        -827.114
  16435327.677 7   5868832.46825  23770665.141       -4101.442
   3814322.534 7    689822.86725  24506641.535        -895.226
   7571587.438 9  -3199202.92529  21865880.036        1726.938
   8462267.806 8   1151783.05928  22010022.888       -1100.467
  17657505.419 9  -1670960.74829  21002262.446         835.167
 96  7  1  3 19 45.0010000  0  6G 1G17G 5G25G23G21
  15329678.599 9   1135173.11429  21914711.521        -827.633
  16496861.884 7   5916781.16825  23782378.722       -4103.011
   3827798.643 7    700323.78125  24509211.866        -901.687
   7545728.802 9  -3219352.50429  21860965.449        1720.792
   8478812.169 8   1164674.75627  22013168.161       -1105.508
  17645008.422 9  -1680698.66429  20999884.313         831.090
 96  7  1  3 20  0.0010000  0  6G 1G17G 5G25G23G21
  15342096.182 9   1144849.14729  21917075.025        -828.052
  16558419.083 7   5964747.85325  23794096.350       -4104.495
   3841373.994 7    710901.99125  24511786.933        -908.391
   7519966.397 9  -3239427.09429  21856060.214        1714.224
   8495432.982 8   1177626.03027  22016330.132       -1110.549
  17632572.326 9  -1690389.13129  20997517.631         827.061
 96  7  1  3 20 15.0010000  0  6G 1G17G 5G25G23G21
  15354521.567 9   1154531.27329  21919439.818        -828.705
  16619998.595 7   6012731.82724  23805808.492       -4106.052
   3855050.737 7    721559.13025  24514395.937        -915.136
   7494301.183 9  -3259425.95029  21851178.394        1707.791
   8512129.854 8   1190636.55827  22019509.461       -1115.681
  17620198.385 9  -1700031.15429  20995163.061         822.832
 96  7  1  3 20 30.0010000  0  6G 1G17G 5G25G23G21
  15366957.694 9   1164221.76529  21921808.538        -829.428
  16681600.383 7   6060733.22324  23817534.184       -4107.482
   3868828.037 7    732294.68325  24517015.284        -921.815
   7468735.013 9  -3279347.63729  21846313.602        1701.077
   8528903.721 8   1203707.09327  22022702.460       -1120.744
  17607888.012 9  -1709623.65229  20992818.924         818.531
 96  7  1  3 20 45.0010000  0  6G 1G17G 5G25G23G21
  15379404.150 9   1173920.30729  21924176.568        -829.943
  16743224.588 7   6108752.06324  23829260.746       -4108.929
   3882708.947 7    743110.98825  24519656.935        -928.871
   7443269.682 9  -3299190.73829  21841465.538        1694.425
   8545751.599 9   1216835.32527  22025911.139       -1125.618
  17595645.185 9  -1719163.51329  20990487.738         813.918
 96  7  1  3 21  0.0010000  0  6G 1G17G 5G25G23G21
  15391855.418 9   1183622.59829  21926543.730        -830.286
  16804866.192 7   6156784.51325  23840990.516       -4109.919
   3896696.242 6    754010.17625  24522323.349        -936.067
   7417901.867 9  -3318957.86629  21836640.348        1687.953
   8562672.835 8   1230020.70527  22029129.831       -1130.619
  17583471.555 9  -1728649.45029  20988171.781         809.193
 96  7  1  3 21 15.0010000  0  6G 1G17G 5G25G23G21
  15404311.163 9   1193328.38229  21928918.566        -830.548
  16866520.682 7   6204826.97625  23852718.187       -4110.711
   3910791.261 6    764993.29925  24524999.806        -943.342
   7392629.410 9  -3338650.69529  21831826.251        1681.749
   8579670.296 8   1243265.46427  22032365.221       -1135.723
  17571368.468 9  -1738080.43729  20985871.923         804.470
 96  7  1  3 21 30.0010000  0  6G 1G17G 5G25G23G21
  15416771.605 9   1203037.81729  21931287.645        -830.795
  16928187.653 7   6252879.16025  23864458.179       -4111.517
   3924996.521 6    776062.30325  24527705.103        -950.688
   7367448.417 9  -3358272.24129  21827037.906        1675.742
   8596745.576 9   1256570.87427  22035610.804       -1140.952
  17559338.373 9  -1747454.53729  20983580.430         799.658
 96  7  1  3 21 45.0010000  0  6G 1G17G 5G25G23G21
  15429234.682 9   1212749.30029  21933659.094        -830.917
  16989866.615 7   6300940.69325  23876197.872       -4112.329
   3939313.738 6    787218.57525  24530428.448        -958.140
   7342358.479 9  -3377822.82729  21822259.364        1669.643
   8613900.245 9   1269938.12527  22038875.724       -1146.241
  17547379.525 9  -1756773.12329  20981310.341         794.977
 96  7  1  3 22  0.0010000  0  6G 1G17G 5G25G23G21
  15441698.826 9   1222461.62129  21936028.384        -830.950
  17051558.731 7   6349012.44225  23887930.520       -4113.203
   3953740.849 6    798460.44225  24533175.836        -965.425
   7317358.899 9  -3397303.01229  21817504.356        1663.715
   8631132.629 8   1283365.94127  22042156.892       -1151.388
  17535490.032 9  -1766037.66229  20979042.471         790.307
 96  7  1  3 22 15.0010000  0  5G 1G17G25G23G21
  15454163.360 9   1232174.25129  21938401.151        -831.068
  17113263.221 7   6397093.84524  23899673.211       -4114.089
   7292447.083 9  -3416714.80829  21812763.858        1657.922
   8648442.225 8   1296853.90527  22045451.132       -1156.620
  17523671.183 9  -1775247.15329  20976792.319         785.518
 96  7  1  3 22 30.0010000  0  5G 1G17G25G23G21
  15466630.249 9   1241888.72129  21940770.740        -831.191
  17174980.683 7   6445185.33824  23911412.843       -4114.848
   7267620.006 9  -3436060.56829  21808039.608        1652.275
   8665830.378 9   1310403.10427  22048760.301       -1161.817
  17511923.830 9  -1784400.92129  20974555.477         780.805
 96  7  1  3 22 45.0010000  0  5G 1G17G25G23G21
  15479098.531 9   1251604.26529  21943145.307        -831.305
  17236709.374 7   6493285.62324  23923172.203       -4115.629
   7242880.045 9  -3455338.46329  21803331.817        1646.435
   8683296.636 9   1324013.16927  22052081.102       -1167.009
  17500247.997 9  -1793498.97629  20972338.572         775.979
 96  7  1  3 23  0.0010000  0  5G 1G17G25G23G21
  15491569.197 9   1261321.67829  21945514.896        -831.517
  17298450.322 7   6541395.45624  23934908.807       -4116.532
   7218226.294 9  -3474549.16529  21798641.355        1640.685
   8700841.894 9   1337684.77727  22055422.679       -1172.376
  17488643.316 9  -1802541.57929  20970126.673         771.364
 96  7  1  3 23 15.0010000  0  5G 1G17G25G23G21
  15504044.765 9   1271042.90829  21947890.542        -831.952
  17360206.826 7   6589517.39424  23946667.477       -4117.729
   7193661.027 9  -3493690.92929  21793963.813        1634.693
   8718467.885 9   1351419.32027  22058778.316       -1177.732
  17477107.330 9  -1811530.66029  20967933.512         766.817
 96  7  1  3 23 30.0010000  0  5G 1G17G25G23G21
  15516526.504 9   1280768.93729  21950270.474        -832.304
  17421983.687 7   6637655.19324  23958422.129       -4119.186
   7169186.276 9  -3512762.15629  21789311.933        1628.596
   8736173.375 9   1365215.79427  22062143.036       -1182.989
  17465639.761 9  -1820466.42529  20965749.194         762.174
 96  7  1  3 23 45.0010000  0  5G 1G17G25G23G21
  15529015.137 9   1290500.33629  21952642.402        -832.875
  17483783.775 7   6685811.11724  23970182.178       -4120.837
   7144804.615 9  -3531760.84129  21784664.011        1622.227
   8753959.826 9   1379075.36527  22065533.089       -1188.553
  17454241.364 9  -1829348.29629  20963582.834         757.643
 96  7  1  3 24  0.0010000  0  5G 1G17G25G23G21
  15541512.600 9   1300238.63529  21955026.112        -833.516
  17545608.048 7   6733985.91824  23981945.974       -4122.316
   7120520.692 9  -3550683.37729  21780048.976        1615.588
   8771829.534 9   1392999.82327  22068927.190       -1194.109
  17442910.705 9  -1838177.37629  20961422.139         753.095
 96  7  1  3 24 15.0010000  0  5G 1G17G25G23G21
  15554019.829 9   1309984.53129  21957401.038        -834.131
  17607454.042 7   6782177.59324  23993712.469       -4123.719
   7096336.860 9  -3569527.91529  21775445.962        1608.932
   8789784.298 9   1406990.54927  22072350.490       -1199.865
  17431649.474 9  -1846952.35729  20959280.272         748.471
 96  7  1  3 24 30.0010000  0  5G 1G17G25G23G21
  15566538.865 9   1319739.62129  21959784.328        -835.008
  17669321.990 7   6830386.35924  24005490.984       -4125.351
   7072253.322 9  -3588294.29729  21770860.457        1602.305
   8807826.115 8   1421049.11027  22075777.657       -1205.674
  17420457.939 9  -1855673.03929  20957155.043         743.818
 96  7  1  3 24 45.0010000  0  5G 1G17G25G23G21
  15579070.912 9   1329504.84929  21962169.476        -835.841
  17731214.558 7   6878614.33024  24017263.654       -4126.971
   7048269.371 9  -3606983.09029  21766300.584        1595.562
   8825954.904 9   1435175.41427  22079232.256       -1211.437
  17409336.249 9  -1864339.28929  20955036.650         739.127
 96  7  1  3 25  0.0010000  0  5G 1G17G25G23G21
  15591614.665 9   1339279.21729  21964553.486        -836.604
  17793132.671 7   6926862.19224  24029042.530       -4128.766
   7024386.606 9  -3625593.03329  21761750.244        1588.849
   8844170.751 9   1449369.58427  22082700.435       -1217.290
  17398284.487 9  -1872951.05529  20952933.126         734.425
 96  7  1  3 25 15.0010000  0  5G 1G17G25G23G21
  15604166.877 9   1349060.16129  21966948.678        -836.996
  17855074.864 6   6975128.83724  24040835.886       -4130.149
   7000603.121 9  -3644125.61129  21757226.076        1582.314
   8862473.275 8   1463631.29127  22086177.068       -1223.021
  17387302.179 9  -1881508.69729  20950841.804         729.880
 96  7  1  3 25 30.0010000  0  5G 1G17G25G23G21
  15616725.370 9   1358845.99629  21969335.955        -837.390
  17917039.162 6   7023412.68724  24052624.804       -4131.596
   6976918.179 9  -3662581.40229  21752723.403        1575.728
   8880862.703 8   1477960.71427  22089676.515       -1228.856
  17376391.803 9  -1890010.29129  20948765.801         724.897
 96  7  1  3 25 45.0010000  0  5G 1G17G25G23G21
  15629288.986 9   1368635.83029  21971721.823        -837.748
  17979023.082 6   7071711.85424  24064428.863       -4132.779
   6953332.131 9  -3680960.13729  21748235.450        1569.086
   8899340.781 8   1492359.21227  22093197.188       -1234.790
  17365556.946 9  -1898453.02229  20946707.426         719.864
 96  7  1  3 26  0.0010000  0  5G 1G17G25G23G21
  15641858.102 9   1378429.95129  21974116.895        -838.056
  18041023.290 6   7120023.66424  24076218.861       -4133.819
   6929846.835 9  -3699260.36029  21743762.876        1562.313
   8917906.344 8   1506825.88827  22096729.133       -1240.530
  17354796.016 9  -1906838.16829  20944659.874         714.945
 96  7  1  3 26 15.0010000  0  5G 1G17G25G23G21
  15654429.007 9   1388225.45929  21976507.860        -838.113
  18103036.392 7   7168345.60124  24088020.041       -4134.558
   6906461.774 9  -3717482.47129  21739313.506        1555.688
   8936553.983 8   1521356.51027  22100277.926       -1245.884
  17344108.680 9  -1915165.96829  20942624.912         709.948
 96  7  1  3 26 30.0010000  0  5G 1G17G25G23G21
  15667000.505 9   1398021.43229  21978901.433        -838.117
  18165060.118 7   7216675.74125  24099824.579       -4135.217
   6883173.332 9  -3735629.30229  21734886.921        1549.432
   8955282.402 8   1535950.06727  22103841.439       -1251.247
  17333497.471 9  -1923434.42929  20940602.183         704.868
 96  7  1  3 26 45.0010000  0  5G 1G17G25G23G21
  15679573.455 9   1407818.54429  21981289.790        -838.174
  18227093.409 7   7265013.37125  24111627.078       -4135.755
   6859980.872 9  -3753701.34629  21730472.147        1542.943
   8974091.388 8   1550606.41727  22107419.432       -1256.521
  17322964.794 9  -1931641.72329  20938600.648         699.601
 96  7  1  3 27  0.0010000  0  5G 1G17G25G23G21
  15692144.931 9   1417614.50629  21983682.253        -838.080
  18289130.839 7   7313354.23324  24123434.464       -4135.908
   6836887.646 9  -3771696.06029  21726073.862        1536.210
   8992979.667 8   1565324.54827  22111013.134       -1261.888
  17312510.426 9  -1939787.97829  20936614.883         694.306
 96  7  1  3 27 15.0010000  0  5G 1G17G25G23G21
  15704714.540 9   1427409.01029  21986076.786        -837.926
  18351168.886 7   7361695.53024  24135239.302       -4135.820
   6813893.391 9  -3789613.64429  21721697.941        1529.718
   9011947.014 8   1580104.29527  22114622.515       -1267.140
  17302135.580 9  -1947872.26129  20934641.080         688.993
 96  7  1  3 27 30.0010000  0  5G 1G17G25G23G21
  15717281.624 9   1437201.54929  21988468.140        -837.770
  18413204.316 7   7410034.80025  24147045.158       -4135.677
   6790995.222 9  -3807456.37929  21717337.430        1523.333
   9030991.969 8   1594944.51527  22118245.837       -1272.347
  17291838.487 9  -1955895.97329  20932681.036         683.912
 96  7  1  3 27 45.0010000  0  5G 1G17G25G23G21
  15729848.792 9   1446994.14729  21990860.094        -837.931
  18475239.630 7   7458374.01425  24158844.840       -4135.787
   6768194.193 9  -3825223.40629  21713004.979        1516.701
   9050116.975 8   1609847.11427  22121889.185       -1277.744
  17281619.025 9  -1963859.19729  20930733.495         678.637
 96  7  1  3 28  0.0010000  0  5G 1G17G25G23G21
  15742417.908 9   1456788.26829  21993253.128        -837.963
  18537275.853 7   7506713.94724  24170650.397       -4135.677
   6745493.327 9  -3842912.36229  21708683.171        1510.065
   9069322.866 8   1624812.73927  22125542.905       -1282.946
  17271476.225 9  -1971762.67429  20928801.452         673.790
 96  7  1  3 28 15.0010000  0  5G 1G17G25G23G21
  15754987.633 9   1466582.86929  21995643.673        -837.998
  18599312.498 6   7555054.21425  24182456.614       -4135.771
   6722892.679 9  -3860523.27729  21704381.809        1503.431
   9088607.489 8   1639839.72027  22129210.836       -1288.325
  17261406.728 9  -1979609.03229  20926884.699         668.816
 96  7  1  3 28 30.0010000  0  5G 1G17G25G23G21
  15767557.998 9   1476377.95429  21998034.248        -838.202
  18661350.085 7   7603395.18325  24194266.938       -4136.026
   6700389.034 9  -3878058.57229  21700100.923        1496.962
   9107974.107 8   1654930.58127  22132896.754       -1294.015
  17251412.324 9  -1987396.88829  20924987.163         663.654
 96  7  1  3 28 45.0010000  0  5G 1G17G25G23G21
  15780132.149 9   1486176.00029  22000434.776        -838.459
  18723391.441 7   7651739.09924  24206073.964       -4136.301
   6677982.308 9  -3895518.35329  21695836.285        1490.442
   9127427.481 8   1670089.06627  22136594.365       -1299.814
  17241494.419 9  -1995125.11629  20923097.031         658.689
 96  7  1  3 29  0.0010000  0  5G 1G17G25G23G21
  15792709.293 9   1495976.37029  22002821.604        -838.525
  18785439.802 7   7700088.45924  24217882.399       -4136.857
   6655675.257 9  -3912900.45629  21691590.085        1483.789
   9146966.847 8   1685314.54227  22140322.104       -1305.497
  17231649.369 9  -2002796.57429  20921226.686         653.919
 96  7  1  3 29 15.0010000  0  5G 1G17G25G23G21
  15805287.666 9   1505777.70529  22005220.723        -838.603
  18847497.079 6   7748444.77524  24229682.980       -4137.557
   6633466.765 9  -3930205.76729  21687363.850        1477.300
   9166593.393 8   1700607.97127  22144049.663       -1311.353
  17221876.034 9  -2010412.16429  20919363.596         649.151
 96  7  1  3 29 30.0010000  0  5G 1G17G25G23G21
  15817866.590 9   1515579.46529  22007611.268        -838.649
  18909567.033 6   7796810.93124  24241498.280       -4138.494
   6611355.982 9  -3947434.93629  21683154.584        1470.726
   9186307.980 8   1715969.98027  22147804.864       -1317.264
  17212173.975 9  -2017972.21329  20917520.412         644.441
 96  7  1  3 29 45.0010000  0  5G 1G17G25G23G21
  15830447.187 9   1525382.54229  22010002.682        -838.728
  18971653.141 7   7845189.70724  24253314.480       -4139.607
   6589346.468 9  -3964585.20129  21678968.672        1463.952
   9206111.397 8   1731401.22627  22151574.274       -1323.105
  17202542.646 9  -2025477.12529  20915683.823         639.743
 96  7  1  3 30  0.0010000  0  5G 1G17G25G23G21
  15843028.137 9   1535185.88629  22012397.964        -838.737
  19033753.836 7   7893579.83124  24265129.301       -4140.453
   6567437.225 9  -3981657.33829  21674796.910        1457.286
   9226000.894 8   1746899.50026  22155355.796       -1328.786
  17192983.074 9  -2032926.14429  20913868.160         634.883
 96  7  1  3 30 15.0010000  0  5G 1G17G25G23G21
  15855608.450 9   1544988.72929  22014795.584        -838.703
  19095865.830 6   7941978.80023  24276948.109       -4141.135
   6545627.228 9  -3998652.13029  21670646.164        1450.708
   9245974.709 9   1762463.51326  22159159.653       -1334.379
  17183495.918 9  -2040318.73829  20912061.041         630.028
 96  7  1  3 30 30.0010000  0  5G 1G17G25G23G21
  15868187.715 9   1554790.75729  22017189.517        -838.563
  19157988.150 7   7990385.80924  24288772.223       -4141.762
   6523913.792 9  -4015571.68929  21666515.803        1444.462
   9266032.882 9   1778093.23926  22162970.105       -1340.038
  17174083.108 9  -2047653.39829  20910268.282         625.000
 96  7  1  3 30 45.0010000  0  5G 1G17G25G23G21
  15880765.567 9   1564591.69829  22019582.340        -838.492
  19220120.168 7   8038800.35724  24300595.168       -4142.509
   6502295.789 9  -4032416.88829  21662401.392        1437.911
   9286176.910 9   1793789.90826  22166809.097       -1345.877
  17164747.241 9  -2054928.09929  20908495.250         619.773
 96  7  1  3 31  0.0010000  0  5G 1G17G25G23G21
  15893341.339 9   1574391.00629  22021973.035        -838.336
  19282262.515 7   8087222.93824  24312427.197       -4143.203
   6480776.092 9  -4049185.46729  21658306.317        1431.269
   9306406.448 9   1809553.18526  22170659.482       -1351.491
  17155488.668 9  -2062142.57529  20906732.560         614.644
 96  7  1  3 31 15.0010000  0  5G 1G17G25G23G21
  15905915.043 9   1584188.70629  22024362.471        -838.236
  19344413.834 7   8135652.54824  24324249.213       -4143.660
   6459356.140 9  -4065876.33629  21654232.946        1424.729
   9326722.112 9   1825383.56326  22174525.156       -1357.304
  17146309.393 9  -2069295.25529  20904984.890         609.226
 96  7  1  3 31 30.0010000  0  5G 1G17G25G23G21
  15918490.055 9   1593987.40829  22026758.682        -838.434
  19406572.509 7   8184087.91924  24336077.734       -4144.155
   6438033.785 9  -4082491.15929  21650175.196        1418.210
   9347124.674 8   1841281.67126  22178404.320       -1363.012
  17137212.809 9  -2076383.50129  20903253.259         603.683
 96  7  1  3 31 45.0010000  0  5G 1G17G25G23G21
  15931067.318 9   1603787.88029  22029151.656        -838.618
  19468735.132 7   8232526.31024  24347907.035       -4144.270
   6416808.008 9  -4099030.72329  21646137.231        1411.869
   9367611.820 9   1857245.65726  22182305.489       -1368.660
  17128199.523 9  -2083406.84129  20901540.035         598.008
 96  7  1  3 32  0.0010000  0  5G 1G17G25G23G21
  15943647.235 9   1613590.43129  22031544.569        -838.788
  19530899.248 7   8280965.84823  24359735.196       -4144.386
   6395675.564 9  -4115497.54629  21642114.376        1405.662
   9388184.445 8   1873276.26326  22186217.751       -1374.478
  17119273.569 9  -2090362.12729  20899842.130         592.014
 96  7  1  3 32 15.0010000  0  5G 1G17G25G23G21
  15956229.423 9   1623394.72829  22033938.022        -838.850
  19593065.156 6   8329406.79523  24371564.917       -4144.380
   6374638.242 9  -4131890.27029  21638110.108        1399.263
   9408844.940 8   1889375.35426  22190149.769       -1380.328
  17110438.721 9  -2097246.42529  20898159.575         585.999
 96  7  1  3 32 30.0010000  0  5G 1G17G25G23G21
  15968813.124 9   1633200.21129  22036331.805        -838.988
  19655234.068 7   8377850.10123  24383396.226       -4144.717
   6353698.769 9  -4148206.72629  21634128.235        1392.632
   9429595.315 8   1905544.46526  22194099.025       -1386.427
  17101694.043 9  -2104060.44529  20896492.939         579.910
 96  7  1  3 32 45.0010000  0  5G 1G17G25G23G21
  15981398.602 9   1643007.07329  22038731.763        -839.111
  19717407.897 6   8426297.21823  24395224.178       -4145.080
   6332859.364 9  -4164445.22529  21630160.781        1385.910
   9450438.167 8   1921785.64526  22198062.461       -1392.576
  17093041.227 9  -2110802.91029  20894847.318         573.748
 96  7  1  3 33  0.0010000  0  5G 1G17G25G23G21
  15993986.989 9   1652816.20929  22041127.075        -839.312
  19779587.090 6   8474748.53623  24407058.665       -4145.356
   6312122.757 9  -4180603.61229  21626215.333        1379.024
   9471372.671 8   1938098.26026  22202050.360       -1398.577
  17084481.493 9  -2117472.82129  20893215.488         567.641
 96  7  1  3 33 15.0010000  0  5G 1G17G25G23G21
  16006578.436 9   1662627.72829  22043521.787        -839.521
  19841767.701 6   8523201.02423  24418893.512       -4145.282
   6291487.099 9  -4196683.33429  21622289.820        1372.444
   9492395.220 8   1954479.48626  22206048.692       -1404.326
  17076011.135 9  -2124073.09929  20891605.123         561.758
 96  7  1  3 33 30.0010000  0  5G 1G17G25G23G21
  16019173.546 9   1672442.11929  22045917.879        -839.805
  19903947.426 6   8571652.73423  24430725.331       -4145.358
   6270951.705 9  -4212684.92929  21618383.345        1365.647
   9513503.985 8   1970927.86226  22210065.462       -1410.093
  17067630.023 9  -2130603.84429  20890011.816         555.831
 96  7  1  3 33 45.0010000  0  5G 1G17G25G23G21
  16031772.140 9   1682259.19929  22048314.509        -840.034
  19966125.935 6   8620103.48723  24442552.803       -4145.199
   6250519.164 9  -4228606.37829  21614491.559        1358.658
   9534698.506 8   1987443.06226  22214097.430       -1415.944
  17059337.045 9  -2137065.89129  20888433.468         549.891
 96  7  1  3 34  0.0010000  0  5G 1G17G25G23G21
  16044373.118 9   1692078.15529  22050712.699        -840.184
  20028304.827 6   8668554.50323  24454380.245       -4145.292
   6230191.745 9  -4244445.92729  21610623.876        1351.597
   9555982.307 8   2004027.85527  22218148.556       -1421.905
  17051132.261 9  -2143459.23129  20886871.430         544.113
 96  7  1  3 34 15.0010000  0  5G 1G17G25G23G21
  16056978.069 9   1701900.19929  22053112.658        -840.506
  20090484.470 6   8717006.19823  24466219.888       -4145.341
   6209972.682 9  -4260201.02229  21606776.910        1344.252
   9577354.465 8   2020681.49927  22222215.300       -1427.741
  17043011.523 9  -2149787.08929  20885327.529         538.656
 96  7  1  3 34 30.0010000  0  5G 1G17G25G23G21
  16069586.887 9   1711725.26729  22055512.706        -840.773
  20152663.021 6   8765457.05622  24478054.256       -4145.178
   6189863.794 9  -4275870.28029  21602951.558        1336.960
   9598813.773 8   2037403.04027  22226299.403       -1433.577
  17034970.648 9  -2156052.69629  20883795.169         533.425
 96  7  1  3 34 45.0010000  0  5G 1G17G25G23G21
  16082201.098 9   1721554.52729  22057912.575        -841.155
  20214839.813 7   8813906.46622  24489879.089       -4145.119
   6169862.252 9  -4291455.90129  21599145.003        1329.872
   9620361.122 8   2054193.16727  22230402.213       -1439.433
  17027008.640 9  -2162256.86229  20882283.916         528.079
 96  7  1  3 35  0.0010000  0  5G 1G17G25G23G21
  16094819.256 9   1731386.85629  22060311.034        -841.348
  20277015.193 6   8862354.84423  24501718.283       -4144.909
   6149964.920 9  -4306960.29429  21595359.973        1323.075
   9641994.477 8   2071050.31527  22234518.213       -1445.042
  17019126.058 9  -2168399.14129  20880782.165         522.879
 96  7  1  3 35 15.0010000  0  5G 1G17G25G23G21
  16107440.619 9   1741221.68729  22062715.760        -841.483
  20339187.699 6   8910800.91523  24513537.961       -4144.728
   6130169.519 9  -4322385.27829  21591584.747        1316.342
   9663712.379 8   2087973.35827  22238654.300       -1450.650
  17011320.031 9  -2174481.74729  20879296.574         517.918
 96  7  1  3 35 30.0010000  0  5G 1G17G25G23G21
  16120064.443 9   1751058.44229  22065118.956        -841.679
  20401358.289 6   8959245.51123  24525378.744       -4144.723
   6110475.899 9  -4337730.95029  21587843.817        1309.489
   9685517.423 8   2104964.29727  22242799.980       -1456.582
  17003590.725 9  -2180504.58829  20877828.190         512.654
 96  7  1  3 35 45.0010000  0  5G 1G17G25G23G21
  16132689.793 9   1760896.37629  22067518.045        -841.791
  20463530.902 6   9007691.71823  24537212.211       -4145.047
   6090885.854 9  -4352995.91629  21584114.369        1302.514
   9707411.159 8   2122024.33427  22246969.194       -1462.630
  16995940.626 9  -2186465.71029  20876371.379         507.264
 96  7  1  3 36  0.0010000  0  5G 1G17G25G23G21
  16145315.680 9   1770734.74329  22069919.143        -841.719
  20525706.215 6   9056139.95723  24549036.775       -4145.131
   6071398.247 9  -4368181.05329  21580408.754        1295.851
   9729393.982 8   2139153.77627  22251148.780       -1468.442
  16988370.848 9  -2192364.23129  20874931.476         501.993
 96  7  1  3 36 15.0010000  0  5G 1G17G25G23G21
  16157940.507 9   1780572.26529  22072324.857        -841.598
  20587883.135 6   9104589.47923  24560870.273       -4145.117
   6052011.281 9  -4383287.77529  21576716.030        1289.075
   9751462.275 8   2156349.83227  22255347.673       -1474.054
  16980880.916 9  -2198200.53929  20873502.695         496.630
 96  7  1  3 36 30.0010000  0  5G 1G17G25G23G21
  16170560.914 9   1790406.35529  22074724.067        -841.068
  20650060.337 6   9153039.25823  24572703.262       -4145.199
   6032724.565 9  -4398316.38029  21573046.541        1282.521
   9773614.718 8   2173611.47727  22259560.447       -1479.627
  16973471.734 9  -2203973.92329  20872094.120         491.238
 96  7  1  3 36 45.0010000  0  5G 1G17G25G23G21
  16183172.850 9   1800233.85129  22077122.616        -840.537
  20712237.491 6   9201488.98923  24584537.299       -4145.170
   6013534.591 9  -4413269.59629  21569395.158        1276.170
   9795851.324 8   2190938.70127  22263794.985       -1485.274
  16966144.241 9  -2209683.66829  20870701.164         485.702
 96  7  1  3 37  0.0010000  0  5G 1G17G25G23G21
  16195777.340 9   1810055.52629  22079522.395        -840.095
  20774415.077 6   9249939.02523  24596371.127       -4145.170
   5994439.535 9  -4428148.84129  21565761.974        1269.775
   9818172.441 8   2208331.77326  22268040.197       -1490.851
  16958901.659 9  -2215327.23629  20869322.629         479.944
 96  7  1  3 37 15.0010000  0  5G 1G17G25G23G21
  16208376.345 9   1819872.93129  22081922.683        -839.836
  20836591.602 6   9298388.24022  24608198.629       -4145.053
   5975440.449 9  -4442953.32629  21562145.337        1263.364
   9840577.471 8   2225790.23026  22272306.033       -1496.514
  16951744.556 9  -2220904.20329  20867960.641         474.295
 96  7  1  3 37 30.0010000  0  5G 1G17G25G23G21
  16220973.386 9   1829688.80729  22084319.794        -839.805
  20898764.724 6   9346834.83823  24620038.812       -4144.785
   5956539.304 9  -4457681.48329  21558548.877        1256.777
   9863067.317 8   2243314.77426  22276587.819       -1502.205
  16944672.790 9  -2226414.67329  20866612.894         468.523
 96  7  1  3 37 45.0010000  0  5G 1G17G25G23G21
  16233569.376 9   1839503.87629  22086714.925        -839.697
  20960933.835 6   9395278.31423  24631862.656       -4144.408
   5937736.247 9  -4472333.21429  21554972.023        1250.266
   9885640.972 8   2260904.64526  22280880.188       -1507.659
  16937688.854 9  -2231856.69629  20865285.054         462.648
 96  7  1  3 38  0.0010000  0  5G 1G17G25G23G21
  16246164.783 9   1849318.48329  22089111.916        -839.722
  21023096.254 6   9443716.61022  24643685.961       -4143.879
   5919031.031 9  -4486908.70629  21551412.558        1243.763
   9908297.770 8   2278559.25926  22285195.041       -1513.223
  16930793.198 9  -2237229.93729  20863977.029         456.801
 96  7  1  3 38 15.0010000  0  5G 1G17G25G23G21
  16258761.814 9   1859134.31929  22091512.354        -839.937
  21085248.834 6   9492147.13022  24655515.262       -4143.255
   5900423.392 9  -4501408.15129  21547873.807        1237.165
   9931039.034 8   2296279.74026  22289517.388       -1519.066
  16923985.459 9  -2242534.66929  20862673.771         450.821
 96  7  1  3 38 30.0010000  0  5G 1G17G25G23G21
  16271362.825 9   1868953.29529  22093908.086        -840.146
  21147393.566 7   9540571.55822  24667345.582       -4142.657
   5881915.904 9  -4515829.55729  21544350.287        1230.590
   9953870.332 8   2314070.35826  22293866.148       -1525.068
  16917268.516 9  -2247768.64429  20861400.553         444.852
 96  7  1  3 38 45.0010000  0  4G 1G25G23G21
  16283967.448 9   1878775.09029  22096307.595        -840.609
   5863503.895 9  -4530176.57129  21540843.524        1224.212
   9976791.119 8   2331930.72426  22298225.879       -1531.099
  16910640.758 9  -2252933.12929  20860137.677         438.722
 96  7  1  3 39  0.0010000  0  4G 1G25G23G21
  16296580.481 9   1888603.42029  22098706.924        -841.164
   5845187.953 9  -4544448.73429  21537362.424        1217.840
   9999803.862 8   2349862.73626  22302604.918       -1537.271
  16904106.862 9  -2258024.47729  20858894.468         432.440
 96  7  1  3 39 15.0010000  0  4G 1G25G23G21
  16309200.202 9   1898436.96629  22101110.300        -841.482
   5826969.489 9  -4558644.92829  21533892.866        1211.240
  10022907.551 8   2367865.58326  22307002.484       -1543.208
  16897666.550 9  -2263042.90029  20857669.756         426.316
 96  7  1  3 39 30.0010000  0  4G 1G25G23G21
  16321823.949 9   1908273.65729  22103511.098        -841.638
   5808852.061 9  -4572762.38829  21530441.895        1204.388
  10046101.677 8   2385938.93426  22311417.407       -1549.262
  16891317.449 9  -2267990.25029  20856460.873         420.216
 96  7  1  3 39 45.0010000  0  4G 1G25G23G21
  16334447.027 9   1918109.82529  22105909.947        -841.422
   5790838.372 9  -4586799.02429  21527017.966        1197.430
  10069386.656 8   2404083.09626  22315846.481       -1555.385
  16885061.537 9  -2272864.98629  20855271.026         413.910
 96  7  1  3 40  0.0010000  0  4G 1G25G23G21
  16347065.050 9   1927942.05429  22108310.505        -841.030
   5772928.662 9  -4600754.63229  21523608.216        1190.488
  10092763.628 8   2422298.92026  22320296.750       -1561.602
  16878899.620 9  -2277666.48429  20854098.328         407.705
 96  7  1  3 40 15.0010000  0  4G 1G25G23G21
  16359675.766 9   1937768.57829  22110714.931        -840.452
   5755123.906 9  -4614628.46529  21520222.570        1183.429
  10116234.048 8   2440587.54826  22324766.985       -1567.777
  16872829.481 9  -2282396.45629  20852943.228         401.644
 96  7  1  3 40 30.0010000  0  4G 1G25G23G21
  16372275.789 9   1947586.78729  22113111.681        -839.594
   5737423.627 9  -4628420.87929  21516853.712        1176.507
  10139796.021 8   2458947.53526  22329244.835       -1573.787
  16866850.148 9  -2287055.67429  20851805.126         395.577
 96  7  1  3 40 45.0010000  0  4G 1G25G23G21
  16384863.478 9   1957395.36629  22115510.531        -838.804
   5719830.325 9  -4642129.94729  21513504.731        1169.356
  10163448.175 8   2477377.79826  22333745.500       -1579.727
  16860962.319 9  -2291643.60229  20850687.080         389.514
 96  7  1  3 41  0.0010000  0  4G 1G25G23G21
  16397439.656 9   1967194.99229  22117899.787        -838.019
   5702345.080 9  -4655754.80129  21510182.521        1161.967
  10187188.317 8   2495876.60426  22338262.862       -1585.609
  16855164.780 9  -2296161.15529  20849578.087         383.479
 96  7  1  3 41 15.0010000  0  4G 1G25G23G21
  16410003.099 9   1976984.68329  22120288.053        -837.176
   5684972.730 9  -4669291.68729  21506871.912        1154.332
  10211015.917 8   2514443.54526  22342801.960       -1591.380
  16849457.254 9  -2300608.57929  20848497.396         377.483
 96  7  1  3 41 30.0010000  0  4G 1G25G23G21
  16422554.726 9   1986765.16629  22122678.179        -836.497
   5667714.902 9  -4682739.34229  21503586.817        1146.680
  10234929.402 8   2533077.41726  22347347.773       -1597.126
  16843838.808 9  -2304986.59429  20847426.957         371.587
 96  7  1  3 41 45.0010000  0  4G 1G25G23G21
  16435098.021 9   1996539.15829  22125066.295        -836.022
   5650569.769 9  -4696099.17029  21500323.876        1139.409
  10258929.347 8   2551778.66926  22351919.818       -1602.928
  16838309.933 9  -2309294.81529  20846372.347         365.531
 96  7  1  3 42  0.0010000  0  4G 1G25G23G21
  16447636.624 9   2006309.50329  22127452.224        -835.849
   5633532.698 9  -4709374.80129  21497082.609        1132.255
  10283017.435 8   2570548.58426  22356498.668       -1608.792
  16832873.229 9  -2313531.19429  20845338.812         359.395
 96  7  1  3 42 15.0010000  0  4G 1G25G23G21
  16460174.380 9   2016079.18329  22129836.773        -835.960
   5616602.244 9  -4722567.36729  21493860.050        1125.068
  10307191.871 8   2589385.79726  22361100.063       -1614.561
  16827527.227 9  -2317696.91829  20844321.197         353.370
 96  7  1  3 42 30.0010000  0  4G 1G25G23G21
  16472714.035 9   2025850.33729  22132226.239        -836.057
   5599779.017 9  -4735676.35929  21490658.537        1118.068
  10331452.628 8   2608290.27426  22365713.179       -1620.211
  16822271.567 9  -2321792.23429  20843318.181         347.332
 96  7  1  3 42 45.0010000  0  4G 1G25G23G21
  16485258.372 9   2035625.13929  22134611.267        -836.452
   5583061.830 9  -4748702.73529  21487477.229        1111.026
  10355800.826 8   2627262.86026  22370349.200       -1626.060
  16817108.824 9  -2325815.14929  20842338.190         341.168
 96  7  1  3 43  0.0010000  0  4G 1G25G23G21
  16497808.847 9   2045404.73629  22136999.084        -836.935
   5566448.840 9  -4761647.91329  21484318.616        1104.109
  10380238.063 8   2646304.86426  22375002.338       -1632.128
  16812037.995 9  -2329766.45429  20841375.316         334.961
 96  7  1  3 43 15.0010000  0  4G 1G25G23G21
  16510366.440 9   2055189.87429  22139388.011        -837.335
   5549941.068 9  -4774511.10229  21481175.592        1096.973
  10404767.481 8   2665418.67326  22379669.747       -1638.462
  16807062.618 9  -2333643.36429  20840427.672         328.467
 96  7  1  3 43 30.0010000  0  4G 1G25G23G21
  16522928.541 9   2064978.52029  22141775.828        -837.581
   5533537.709 9  -4787292.92929  21478056.251        1090.243
  10429391.457 8   2684606.18926  22384352.056       -1644.723
  16802184.429 9  -2337444.54729  20839497.386         322.066
 96  7  1  3 43 45.0010000  0  4G 1G25G23G21
  16535493.435 9   2074769.34129  22144167.752        -837.754
   5517234.785 9  -4799996.50329  21474951.450        1083.502
  10454109.984 8   2703867.38426  22389056.639       -1651.020
  16797400.128 9  -2341172.57629  20838584.908         315.845
 96  7  1  3 44  0.0010000  0  4G 1G25G23G21
  16548060.143 9   2084561.59429  22146564.323        -837.784
   5501034.292 9  -4812620.26429  21471869.254        1076.519
  10478924.918 8   2723203.68326  22393784.456       -1657.566
  16792710.697 9  -2344826.68629  20837693.205         309.453
 96  7  1  3 44 15.0010000  0  4G 1G25G23G21
  16560625.459 9   2094352.73929  22148952.799        -837.576
   5484940.777 9  -4825160.65029  21468805.195        1069.259
  10503836.759 8   2742615.51526  22398521.536       -1663.974
  16788115.126 9  -2348407.64329  20836821.469         303.307
 96  7  1  3 44 30.0010000  0  4G 1G25G23G21
  16573185.776 9   2104139.98729  22151339.807        -837.074
   5468955.859 9  -4837616.41429  21465764.431        1062.141
  10528845.830 8   2762103.09526  22403277.324       -1670.500
  16783610.943 9  -2351917.39529  20835964.062         297.242
 96  7  1  3 44 45.0010000  0  4G 1G25G23G21
  16585738.027 9   2113920.96329  22153727.474        -836.526
   5453078.112 9  -4849988.68529  21462742.882        1054.969
  10553953.055 8   2781667.17227  22408055.146       -1676.993
  16779199.659 9  -2355354.75829  20835123.834         290.982
 96  7  1  3 45  0.0010000  0  4G 1G25G23G21
  16598279.863 9   2123693.83529  22156114.931        -835.808
   5437306.829 9  -4862277.97629  21459742.619        1047.809
  10579154.995 8   2801305.02727  22412851.616       -1683.276
  16774881.484 9  -2358719.56129  20834302.103         284.707
 96  7  1  3 45 15.0010000  0  4G 1G25G23G21
  16610810.602 9   2133458.04029  22158503.018        -834.911
   5421643.489 9  -4874483.17629  21456758.635        1040.669
  10604450.393 8   2821015.72227  22417667.602       -1689.304
  16770658.429 9  -2362010.26229  20833498.659         278.404
 96  7  1  3 45 30.0010000  0  4G 1G25G23G21
  16623327.049 9   2143211.11829  22160883.430        -833.972
   5406086.722 9  -4886605.32829  21453801.632        1033.654
  10629835.080 8   2840796.01027  22422495.849       -1695.302
  16766529.228 9  -2365227.83229  20832713.473         272.198
 96  7  1  3 45 45.0010000  0  4G 1G25G23G21
  16635830.266 9   2152953.89329  22163261.293        -833.107
   5390631.853 9  -4898648.07729  21450861.657        1026.990
  10655306.777 8   2860644.08427  22427344.243       -1700.948
  16762491.994 9  -2368373.72429  20831947.023         266.121
 96  7  1  3 46  0.0010000  0  4G 1G25G23G21
  16648320.864 9   2162686.81629  22165639.367        -832.279
   5375279.327 9  -4910611.07729  21447940.330        1020.059
  10680864.779 8   2880559.43027  22432208.885       -1706.728
  16758547.389 9  -2371447.43829  20831195.024         259.849
 96  7  1  3 46 15.0010000  0  4G 1G25G23G21
  16660798.963 9   2172409.99729  22168017.351        -831.489
   5360029.189 9  -4922494.29429  21445039.058        1013.320
  10706509.777 8   2900542.52127  22437088.577       -1712.485
  16754697.133 9  -2374447.64729  20830459.273         253.536
 96  7  1  3 46 30.0010000  0  4G 1G25G23G21
  16673265.047 9   2182123.83129  22170384.962        -830.739
   5344876.746 9  -4934301.38629  21442151.218        1006.999
  10732239.253 8   2920591.43626  22441980.920       -1718.109
  16750941.582 9  -2377374.04429  20829744.598         247.130
 96  7  1  3 46 45.0010000  0  4G 1G25G23G21
  16685720.314 9   2191829.24029  22172757.310        -830.038
   5329818.093 9  -4946035.38729  21439290.568        1000.757
  10758051.951 8   2940705.22226  22446894.878       -1723.584
  16747283.338 9  -2380224.62229  20829052.167         240.598
 96  7  1  3 47  0.0010000  0  4G 1G25G23G21
  16698166.821 9   2201527.81529  22175124.081        -829.510
   5314855.471 9  -4957694.57229  21436439.452         994.305
  10783946.068 8   2960882.46826  22451826.164       -1728.981
  16743723.964 9  -2382998.17129  20828376.765         234.000
 96  7  1  3 47 15.0010000  0  4G 1G25G23G21
  16710606.102 9   2211220.75029  22177494.120        -829.007
   5299988.929 9  -4969278.89829  21433611.749         987.953
  10809923.285 8   2981124.45326  22456764.675       -1734.638
  16740264.314 9  -2385694.00329  20827715.902         227.354
 96  7  1  3 47 30.0010000  0  4G 1G25G23G21
  16723037.361 9   2220907.45829  22179860.832        -828.582
   5285216.289 9  -4980790.02929  21430798.017         981.696
  10835986.116 7   3001433.15626  22461723.303       -1740.425
  16736902.148 9  -2388313.86029  20827074.346         220.913
 96  7  1  3 47 45.0010000  0  4G 1G25G23G21
  16735463.902 9   2230590.48429  22182225.415        -828.293
   5270539.239 9  -4992226.67429  21428007.849         975.246
  10862136.630 8   3021810.16626  22466700.697       -1746.359
  16733636.546 9  -2390858.49329  20826454.945         214.580
 96  7  1  3 48  0.0010000  0  4G 1G25G23G21
  16747887.188 9   2240270.95829  22184588.859        -828.155
   5255961.887 9  -5003585.64129  21425235.758         968.343
  10888377.577 8   3042257.64126  22471694.550       -1752.448
  16730466.772 9  -2393328.45329  20825849.574         208.062
 96  7  1  3 48 15.0010000  0  4G 1G25G23G21
  16760309.372 9   2249950.58229  22186951.793        -828.138
   5241489.293 9  -5014862.98629  21422482.914         961.380
  10914710.283 8   3062776.61426  22476708.848       -1758.524
  16727394.680 9  -2395722.29229  20825268.247         201.548
 96  7  1  3 48 30.0010000  0  4G 1G25G23G21
  16772730.564 9   2259629.42929  22189314.997        -828.002
   5227119.944 9  -5026059.86529  21419745.988         954.516
  10941133.488 8   3083366.12026  22481731.871       -1764.530
  16724421.499 9  -2398039.05429  20824701.759         194.892
 96  7  1  3 48 45.0010000  0  4G 1G25G23G21
  16785149.664 9   2269306.64229  22191678.621        -827.940
   5212854.448 9  -5037175.83429  21417029.869         947.440
  10967647.230 8   3104026.19526  22486781.515       -1770.700
  16721547.824 9  -2400278.28429  20824151.130         188.219
 96  7  1  3 49  0.0010000  0  4G 1G25G23G21
  16797566.676 9   2278982.24329  22194040.326        -827.722
   5198697.059 9  -5048207.57029  21414336.533         940.157
  10994254.747 8   3124759.30326  22491845.040       -1777.009
  16718772.693 9  -2402440.72929  20823626.014         181.680
 96  7  1  3 49 15.0010000  0  4G 1G25G23G21
  16809979.954 9   2288654.92429  22196405.328        -827.354
   5184648.669 9  -5059154.35329  21411666.522         933.035
  11020957.807 8   3145566.86626  22496927.271       -1783.386
  16716095.460 9  -2404526.89029  20823115.227         175.309
 96  7  1  3 49 30.0010000  0  4G 1G25G23G21
  16822387.771 9   2298323.34429  22198765.594        -827.007
   5170707.425 9  -5070017.66129  21409009.221         925.798
  11047756.305 8   3166448.81426  22502021.944       -1789.708
  16713513.979 9  -2406538.43729  20822626.296         168.917
 96  7  1  3 49 45.0010000  0  4G 1G25G23G21
  16834791.231 9   2307988.37629  22201125.860        -826.765
   5156875.973 9  -5080795.40329  21406377.643         918.405
  11074648.702 8   3187403.95726  22507142.519       -1795.878
  16711027.761 9  -2408475.74529  20822155.742         162.565
 96  7  1  3 50  0.0010000  0  4G 1G25G23G21
  16847190.170 9   2317649.89529  22203485.347        -826.461
   5143155.577 9  -5091486.60829  21403768.100         910.968
  11101634.141 8   3208431.58226  22512278.834       -1802.207
  16708638.274 9  -2410337.68029  20821697.029         155.938
 96  7  1  3 50 15.0010000  0  4G 1G25G23G21
  16859585.306 9   2327308.44329  22205838.778        -826.264
   5129546.655 9  -5102090.95229  21401175.674         903.566
  11128712.744 8   3229531.75026  22517433.195       -1808.349
  16706350.460 9  -2412120.39429  20821265.208         149.031
 96  7  1  3 50 30.0010000  0  4G 1G25G23G21
  16871976.220 9   2336963.70829  22208204.800        -825.928
   5116046.928 9  -5112610.22329  21398607.262         896.326
  11155883.242 8   3250703.54726  22522602.427       -1814.508
  16704166.442 9  -2413822.22729  20820845.619         142.163
 96  7  1  3 50 45.0010000  0  4G 1G25G23G21
  16884362.673 9   2346615.49029  22210560.329        -825.645
   5102657.282 9  -5123043.70329  21396058.547         888.914
  11183146.960 8   3271947.98126  22527788.207       -1820.647
  16702085.928 9  -2415443.41129  20820448.723         135.274
 96  7  1  3 51  0.0010000  0  4G 1G25G23G21
  16896744.449 9   2356263.62329  22212912.351        -825.282
   5089379.676 9  -5133389.88029  21393532.855         881.404
  11210503.283 8   3293264.55526  22532999.259       -1826.833
  16700108.043 9  -2416984.61329  20820080.818         128.438
 96  7  1  3 51 15.0010000  0  4G 1G25G23G21
  16909121.089 9   2365907.76629  22215272.617        -824.977
   5076213.893 9  -5143648.92329  21391028.389         874.067
  11237950.735 8   3314652.19826  22538218.886       -1832.803
  16698234.194 9  -2418444.76129  20819717.290         121.356
 96  7  1  3 51 30.0010000  0  4G 1G25G23G21
  16921493.596 9   2375548.68129  22217628.146        -824.751
   5063157.228 9  -5153822.94929  21388546.527         866.813
  11265486.806 8   3336108.86926  22543455.421       -1838.613
  16696467.530 9  -2419821.37429  20819379.573         114.193
 96  7  1  3 51 45.0010000  0  4G 1G25G23G21
  16933863.997 9   2385187.95029  22219978.069        -824.680
   5050209.575 9  -5163912.01029  21386077.766         859.522
  11293109.114 8   3357632.73726  22548715.009       -1844.374
  16694810.488 9  -2421112.58529  20819066.590         106.722
 96  7  1  3 52  0.0010000  0  4G 1G25G23G21
  16946232.109 9   2394825.44029  22222331.350        -824.371
   5037370.920 9  -5173916.15429  21383638.085         852.348
  11320818.418 8   3379224.40626  22553986.710       -1850.180
  16693265.489 9  -2422316.48229  20818773.243          99.245
 96  7  1  3 52 15.0010000  0  4G 1G25G23G21
  16958594.453 9   2404458.43129  22224686.040        -823.971
   5024639.960 9  -5183836.37629  21381215.433         845.130
  11348615.726 8   3400884.63626  22559278.047       -1856.119
  16691833.755 9  -2423432.12129  20818497.074          91.714
 96  7  1  3 52 30.0010000  0  4G 1G25G23G21
  16970950.065 9   2414086.18429  22227039.741        -823.428
   5012016.435 9  -5193672.87629  21378807.919         838.096
  11376501.826 8   3422614.07626  22564583.474       -1862.091
  16690513.405 9  -2424460.95429  20818245.459          84.406
 96  7  1  3 52 45.0010000  0  4G 1G25G23G21
  16983296.131 9   2423706.50029  22229384.927        -822.691
   4999498.126 9  -5203427.39029  21376430.385         831.085
  11404478.254 8   3444413.87826  22569903.321       -1868.017
  16689301.691 9  -2425405.15329  20818017.646          77.260
 96  7  1  3 53  0.0010000  0  4G 1G25G23G21
  16995629.769 9   2433317.13029  22231730.533        -821.767
   4987084.439 9  -5213100.38729  21374067.601         824.176
  11432544.332 8   3466283.53626  22575249.670       -1873.970
  16688197.022 9  -2426265.93829  20817806.113          70.173
 96  7  1  3 53 15.0010000  0  4G 1G25G23G21
  17007950.964 9   2442918.06629  22234076.079        -821.033
   4974773.265 9  -5222693.50429  21371722.744         817.408
  11460698.997 8   3488222.23926  22580607.471       -1879.985
  16687196.959 9  -2427045.21129  20817617.843          63.196
 96  7  1  3 53 30.0010000  0  4G 1G25G23G21
  17020262.348 9   2452511.34329  22236420.936        -820.400
   4962562.866 9  -5232208.09429  21369402.261         810.703
  11488945.189 8   3510232.23926  22585979.482       -1886.155
  16686300.944 9  -2427743.40529  20817443.214          56.370
 96  7  1  3 53 45.0010000  0  4G 1G25G23G21
  17032562.822 9   2462096.13829  22238760.427        -819.717
   4950454.437 9  -5241643.22729  21367098.805         803.759
  11517284.435 8   3532314.74726  22591374.157       -1892.446
  16685503.867 9  -2428364.50229  20817295.896          49.954
 96  7  1  3 54  0.0010000  0  4G 1G25G23G21
  17044852.527 9   2471672.54029  22241100.247        -818.930
   4938450.592 9  -5250996.86629  21364809.710         796.722
  11545718.855 8   3554471.44226  22596786.880       -1898.853
  16684801.591 9  -2428911.71829  20817163.568          43.741
 96  7  1  3 54 15.0010000  0  4G 1G25G23G21
  17057129.324 9   2481238.87429  22243438.088        -818.071
   4926552.961 9  -5260267.73829  21362552.962         789.661
  11574250.678 8   3576704.01526  22602212.944       -1905.318
  16684190.114 9  -2429388.19529  20817043.770          37.772
 96  7  1  3 54 30.0010000  0  4G 1G25G23G21
  17069394.873 9   2490796.44029  22245769.154        -817.422
   4914759.846 9  -5269457.16729  21360304.609         782.746
  11602879.168 8   3599011.93226  22607661.072       -1911.819
  16683668.252 9  -2429794.85829  20816945.379          31.754
 96  7  1  3 54 45.0010000  0  4G 1G25G23G21
  17081652.979 9   2500348.22329  22248101.989        -816.971
   4903070.672 9  -5278565.59629  21358081.168         775.848
  11631604.885 8   3621395.57226  22613126.738       -1918.246
  16683239.957 9  -2430128.58229  20816866.143          25.383
 96  7  1  3 55  0.0010000  0  4G 1G25G23G21
  17093904.839 9   2509895.13029  22250433.775        -816.617
   4891486.442 9  -5287592.26829  21355877.753         768.790
  11660426.392 7   3643853.88626  22618614.169       -1924.508
  16682907.840 9  -2430387.37029  20816801.059          18.933
 96  7  1  3 55 15.0010000  0  4G 1G25G23G21
  17106152.207 9   2519438.52629  22252764.212        -816.370
   4880008.769 9  -5296535.91029  21353694.815         761.647
  11689343.008 8   3666386.30526  22624114.911       -1930.905
  16682672.568 9  -2430570.70629  20816753.751          12.429
 96  7  1  3 55 30.0010000  0  4G 1G25G23G21
  17118395.558 9   2528978.79829  22255094.259        -816.034
   4868637.201 9  -5305396.86029  21351527.315         754.559
  11718354.689 8   3688992.79526  22629639.666       -1937.310
  16682536.615 9  -2430676.63729  20816730.727           5.658
 96  7  1  3 55 45.0010000  0  4G 1G25G23G21
  17130632.076 9   2538513.74429  22257422.237        -815.564
   4857373.451 9  -5314173.80629  21349384.339         747.279
  11747463.021 8   3711674.61826  22635174.645       -1943.747
  16682503.754 9  -2430702.24829  20816723.322          -1.350
 96  7  1  3 56  0.0010000  0  4G 1G25G23G21
  17142861.427 9   2548043.13029  22259744.939        -815.012
   4846217.048 9  -5322867.09629  21347262.618         740.296
  11776663.923 8   3734428.57626  22640731.927       -1949.739
  16682578.039 9  -2430644.36429  20816737.772          -8.619
 96  7  1  3 56 15.0010000  0  4G 1G25G23G21
  17155081.691 9   2557565.39329  22262073.727        -814.359
   4835163.371 9  -5331480.34429  21345161.792         733.541
  11805955.766 8   3757253.39626  22646305.339       -1955.797
  16682764.152 9  -2430499.35129  20816774.257         -16.208
 96  7  1  3 56 30.0010000  0  4G 1G25G23G21
  17167293.951 9   2567081.44529  22264397.209        -814.029
   4824211.244 9  -5340014.45829  21343075.626         726.759
  11835337.832 8   3780148.49826  22651898.687       -1961.798
  16683067.008 9  -2430263.34929  20816833.106         -24.235
 96  7  1  3 56 45.0010000  0  4G 1G25G23G21
  17179502.252 9   2576594.40929  22266724.288        -813.809
   4813361.862 9  -5348468.52629  21341012.365         719.744
  11864809.394 8   3803113.36226  22657504.116       -1967.764
  16683491.913 9  -2429932.25529  20816911.952         -32.453
 96  7  1  3 57  0.0010000  0  4G 1G25G23G21
  17191707.215 9   2586104.76229  22269045.191        -813.466
   4802619.301 9  -5356839.33429  21338967.690         712.632
  11894372.053 8   3826149.20326  22663127.953       -1973.816
  16684039.185 9  -2429505.81729  20817019.817         -40.399
 96  7  1  3 57 15.0010000  0  4G 1G25G23G21
  17203905.487 9   2595609.90629  22271365.465        -812.981
   4791983.018 9  -5365127.34429  21336940.194         705.562
  11924023.224 8   3849254.02626  22668775.263       -1979.646
  16684703.428 9  -2428988.22529  20817143.691         -48.111
 96  7  1  3 57 30.0010000  0  4G 1G25G23G21
  17216094.941 9   2605108.19329  22273686.548        -812.368
   4781451.101 9  -5373334.03529  21334936.771         698.655
  11953762.014 8   3872427.09326  22674432.767       -1985.484
  16685482.641 9  -2428381.04529  20817290.380         -55.822
 96  7  1  3 57 45.0010000  0  4G 1G25G23G21
  17228276.676 9   2614600.45129  22276003.104        -811.879
   4771023.711 9  -5381459.26529  21332956.042         691.620
  11983587.801 8   3895667.97726  22680102.592       -1991.296
  16686377.622 9  -2427683.66729  20817463.780         -63.494
 96  7  1  3 58  0.0010000  0  4G 1G25G23G21
  17240453.666 9   2624089.02029  22278320.949        -811.792
   4760702.331 9  -5389501.87529  21330990.513         684.559
  12013500.415 8   3918976.49526  22685799.458       -1997.108
  16687387.252 9  -2426896.93429  20817655.797         -71.134
 96  7  1  3 58 15.0010000  0  4G 1G25G23G21
  17252628.091 9   2633575.58929  22280636.426        -811.485
   4750487.074 9  -5397461.81629  21329045.159         677.426
  12043501.215 7   3942353.73926  22691507.986       -2003.116
  16688509.693 9  -2426022.30829  20817862.983         -78.451
 96  7  1  3 58 30.0010000  0  4G 1G25G23G21
  17264799.489 9   2643059.79629  22282951.004        -811.411
   4740380.283 9  -5405337.23329  21327121.601         670.075
  12073592.555 7   3965801.52826  22697233.752       -2009.157
  16689740.722 9  -2425063.07329  20818102.158         -85.628
 96  7  1  3 58 45.0010000  0  4G 1G25G23G21
  17276969.995 9   2652543.31229  22285269.569        -811.372
   4730384.903 9  -5413125.83329  21325220.587         662.579
  12103775.840 7   3989320.96426  22702977.266       -2015.405
  16691077.671 9  -2424021.30629  20818357.881         -92.657
 96  7  1  3 59  0.0010000  0  4G 1G25G23G21
  17289135.732 9   2662023.10529  22287584.506        -810.742
   4720499.945 9  -5420828.38029  21323339.839         655.382
  12134053.771 8   4012914.19126  22708738.318       -2021.682
  16692516.302 9  -2422900.28929  20818630.542         -99.185
 96  7  1  3 59 15.0010000  0  4G 1G25G23G21
  17301290.215 9   2671494.11729  22289895.067        -809.871
   4710721.524 9  -5428447.93129  21321476.569         648.418
  12164425.060 8   4036580.12726  22714518.556       -2027.764
  16694050.619 9  -2421704.71829  20818924.668        -105.455
 96  7  1  3 59 30.0010000  0  4G 1G25G23G21
  17313433.646 9   2680956.54229  22292208.925        -809.248
   4701048.165 9  -5435985.60229  21319636.323         641.396
  12194888.731 7   4060318.02326  22720316.662       -2034.067
  16695681.271 9  -2420434.08029  20819235.283        -111.895
 96  7  1  3 59 45.0010000  0  4G 1G25G23G21
  17325569.459 9   2690413.01429  22294518.196        -808.866
   4691482.426 9  -5443439.41929  21317817.542         634.053
  12225449.423 7   4084131.52926  22726128.708       -2040.629
  16697409.215 9  -2419087.62929  20819560.348        -118.510
 96  7  1  4  0  0.0010000  0  4G 1G25G23G21
  17337698.460 9   2699864.18029  22296823.181        -808.274
   4682025.156 9  -5450808.71129  21316018.188         626.950
  12256108.243 8   4108021.53426  22731964.109       -2047.145
  16699235.461 9  -2417664.59729  20819910.146        -124.960
 96  7  1  4  0 15.0010000  0  4G 1G25G23G21
  17349818.219 9   2709308.15829  22299132.932        -807.684
   4672676.010 9  -5458093.75429  21314238.889         619.545
  12286866.972 7   4131989.38526  22737817.736       -2054.018
  16701159.108 9  -2416165.65229  20820276.463        -131.600
 96  7  1  4  0 30.0010000  0  4G 1G25G23G21
  17361925.931 9   2718742.73529  22301433.089        -806.765
   4663435.989 9  -5465293.75129  21312481.056         612.428
  12317726.091 8   4156035.46326  22743694.358       -2060.582
  16703181.470 9  -2414589.78429  20820659.178        -138.137
 96  7  1  4  0 45.0010000  0  4G 1G25G23G21
  17374022.296 9   2728168.46629  22303738.433        -806.079
   4654303.502 9  -5472409.96729  21310740.821         605.289
  12348684.518 8   4180158.90526  22749585.370       -2067.235
  16705305.564 9  -2412934.64829  20821061.259        -145.120
 96  7  1  4  1  0.0010000  0  4G 1G25G23G21
  17386106.868 9   2737585.01429  22306037.392        -805.292
   4645277.327 9  -5479443.35329  21309022.441         598.197
  12379742.258 8   4204359.74626  22755490.112       -2073.784
  16707535.487 9  -2411197.05429  20821488.134        -152.270
 96  7  1  4  1 15.0010000  0  4G 1G25G23G21
  17398179.892 9   2746992.56829  22308333.742        -804.540
   4636356.258 9  -5486394.82529  21307327.534         591.214
  12410896.221 8   4228635.57126  22761423.454       -2080.009
  16709873.975 9  -2409374.86029  20821927.300        -159.606
 96  7  1  4  1 30.0010000  0  4G 1G25G23G21
  17410244.908 9   2756393.87529  22310632.880        -804.161
   4627541.396 9  -5493263.53329  21305649.116         584.090
  12442142.964 8   4252983.67926  22767363.272       -2086.274
  16712326.612 9  -2407463.70929  20822397.134        -167.484
 96  7  1  4  1 45.0010000  0  4G 1G25G23G21
  17422306.348 9   2765792.40429  22312923.534        -803.953
   4618834.846 9  -5500047.85029  21303991.204         576.821
  12473486.827 8   4277407.45826  22773334.119       -2092.848
  16714901.295 9  -2405457.47329  20822893.501        -175.757
 96  7  1  4  2  0.0010000  0  4G 1G25G23G21
  17434360.215 9   2775185.03229  22315222.193        -803.245
   4610234.114 9  -5506749.71729  21302354.427         569.935
  12504924.519 8   4301904.33126  22779315.188       -2098.860
  16717598.603 9  -2403355.67529  20823403.208        -183.968
 96  7  1  4  2 15.0010000  0  4G 1G25G23G21
  17446405.225 9   2784570.75029  22317510.629        -802.762
   4601737.585 9  -5513370.38029  21300740.974         562.904
  12536453.534 8   4326472.39026  22785317.663       -2105.014
  16720421.719 9  -2401155.84229  20823941.725        -192.423
 96  7  1  4  2 30.0010000  0  4G 1G25G23G21
  17458442.389 9   2793950.34829  22319801.523        -802.258
   4593345.240 9  -5519909.85429  21299141.851         556.035
  12568072.925 8   4351110.89226  22791334.587       -2110.939
  16723372.384 9  -2398856.63029  20824504.376        -201.061
 96  7  1  4  2 45.0010000  0  4G 1G25G23G21
  17470474.117 9   2803325.72129  22322093.496        -801.960
   4585056.038 9  -5526368.96429  21297565.962         549.264
  12599781.711 8   4375819.03326  22797362.904       -2116.884
  16726453.998 9  -2396455.38729  20825086.842        -209.804
 96  7  1  4  3  0.0010000  0  4G 1G25G23G21
  17482501.761 9   2812697.91829  22324381.033        -801.692
   4576868.568 9  -5532748.79829  21296007.281         542.374
  12631579.487 8   4400596.54626  22803417.992       -2122.776
  16729666.754 9  -2393951.93329  20825703.186        -218.524
 96  7  1  4  3 15.0010000  0  4G 1G25G23G21
  17494524.313 9   2822066.13229  22326670.308        -801.279
   4568785.679 9  -5539047.14629  21294468.566         535.449
  12663466.430 8   4425443.52126  22809484.053       -2128.735
  16733008.583 9  -2391347.91929  20826336.078        -226.981
 96  7  1  4  3 30.0010000  0  4G 1G25G23G21
  17506539.469 9   2831428.58829  22328955.626        -800.792
   4560805.817 9  -5545265.21729  21292949.788         528.487
  12695441.264 8   4450358.98826  22815568.760       -2134.589
  16736476.359 9  -2388645.76329  20827000.088        -235.309
 96  7  1  4  3 45.0010000  0  4G 1G25G23G21
  17518546.803 9   2840784.95429  22331239.415        -800.192
   4552930.734 9  -5551401.64029  21291450.496         521.526
  12727504.723 8   4475343.49826  22821671.606       -2140.526
  16740067.049 9  -2385847.82129  20827680.767        -243.375
 96  7  1  4  4  0.0010000  0  4G 1G25G23G21
  17530545.068 9   2850134.24229  22333522.574        -799.550
   4545160.312 9  -5557456.50029  21289975.547         514.531
  12759656.416 8   4500396.76526  22827790.519       -2146.303
  16743775.370 9  -2382958.22929  20828381.382        -251.013
 96  7  1  4  4 15.0010000  0  4G 1G25G23G21
  17542532.908 9   2859475.41529  22335804.025        -798.889
   4537496.731 9  -5563428.11829  21288513.549         507.307
  12791894.551 8   4525517.39426  22833922.384       -2152.097
  16747597.858 9  -2379979.68129  20829113.415        -258.578
 96  7  1  4  4 30.0010000  0  4G 1G25G23G21
  17554512.499 9   2868810.16529  22338084.336        -798.413
   4529941.128 9  -5569315.59029  21287076.584         500.141
  12824221.253 8   4550707.06226  22840076.584       -2158.091
  16751532.319 9  -2376913.87129  20829860.767        -265.989
 96  7  1  4  4 45.0010000  0  4G 1G25G23G21
  17566483.322 9   2878138.07529  22340360.330        -797.779
   4522491.757 9  -5575120.29929  21285660.964         493.062
  12856638.188 8   4575967.00426  22846246.882       -2164.214
  16755576.538 9  -2373762.53629  20830631.084        -273.225
 96  7  1  4  5  0.0010000  0  4G 1G25G23G21
  17578443.229 9   2887457.47729  22342637.344        -797.047
   4515148.361 9  -5580842.41429  21284263.391         485.936
  12889145.890 8   4601297.70326  22852431.181       -2170.311
  16759725.410 9  -2370529.65729  20831418.189        -280.083
 96  7  1  4  5 15.0010000  0  4G 1G25G23G21
  17590392.319 9   2896768.46229  22344907.193        -796.253
   4507913.999 9  -5586479.56229  21282883.956         478.612
  12921746.568 8   4626700.84626  22858632.628       -2176.488
  16763977.021 9  -2367216.71329  20832229.817        -286.868
 96  7  1  4  5 30.0010000  0  4G 1G25G23G21
  17602330.973 9   2906071.30129  22347183.007        -795.589
   4500790.947 9  -5592029.99829  21281529.464         471.181
  12954441.351 7   4652177.30526  22864858.238       -2182.785
  16768333.318 9  -2363822.20529  20833058.564        -293.943
 96  7  1  4  5 45.0010000  0  4G 1G25G23G21
  17614260.718 9   2915367.21229  22349452.466        -795.092
   4493779.627 9  -5597493.35729  21280198.535         463.640
  12987230.295 7   4677727.11126  22871097.309       -2189.127
  16772795.206 9  -2360345.40529  20833908.535        -301.045
 96  7  1  4  6  0.0010000  0  4G 1G25G23G21
  17626181.734 9   2924656.30029  22351723.214        -794.481
   4486879.737 9  -5602869.88229  21278883.466         456.266
  13020115.212 7   4703351.69526  22877348.791       -2195.598
  16777365.172 9  -2356784.39629  20834774.336        -308.369
 96  7  1  4  6 15.0010000  0  4G 1G25G23G21
  17638093.318 9   2933938.05129  22353990.005        -793.747
   4480090.963 9  -5608159.83729  21277590.401         448.939
  13053098.069 7   4729052.64226  22883628.634       -2202.101
  16782045.076 9  -2353137.71429  20835665.469        -315.650
 96  7  1  4  6 30.0010000  0  4G 1G25G23G21
  17649994.594 9   2943211.77129  22356254.517        -793.167
   4473411.861 9  -5613364.32129  21276319.011         441.681
  13086179.872 7   4754830.70026  22889919.748       -2208.801
  16786836.480 9  -2349404.15429  20836579.836        -323.211
 96  7  1  4  6 45.0010000  0  4G 1G25G23G21
  17661887.029 9   2952478.59129  22358520.288        -792.460
   4466839.029 9  -5618486.00329  21275068.517         434.619
  13119359.792 7   4780685.18726  22896238.234       -2215.273
  16791739.986 9  -2345583.24629  20837510.931        -330.653
 96  7  1  4  7  0.0010000  0  4G 1G25G23G21
  17673768.341 9   2961736.74929  22360775.837        -791.698
   4460374.690 9  -5623523.14229  21273836.879         427.320
  13152638.477 7   4806616.67026  22902569.251       -2221.765
  16796757.146 9  -2341673.77329  20838469.248        -338.242
 96  7  1  4  7 15.0010000  0  4G 1G25G23G21
  17685638.273 9   2970986.05029  22363035.673        -791.057
   4454021.259 9  -5628473.86729  21272632.733         419.839
  13186013.060 7   4832622.83526  22908918.466       -2228.187
  16801889.844 9  -2337674.27129  20839442.014        -346.168
 96  7  1  4  7 30.0010000  0  4G 1G25G23G21
  17697498.669 9   2980227.91329  22365290.741        -790.298
   4447779.524 9  -5633337.53729  21271439.289         412.484
  13219481.998 7   4858702.52126  22915289.115       -2234.273
  16807142.222 9  -2333581.50829  20840442.752        -354.075
 96  7  1  4  7 45.0010000  0  4G 1G25G23G21
  17709348.542 9   2989461.56129  22367546.590        -789.660
   4441646.497 9  -5638116.51729  21270275.405         405.362
  13253041.832 7   4884853.02726  22921674.005       -2240.271
  16812513.153 9  -2329396.37229  20841463.635        -361.915
 96  7  1  4  8  0.0010000  0  4G 1G25G23G21
  17721190.045 9   2998688.70229  22369801.479        -789.149
   4435620.547 9  -5642812.07329  21269128.609         398.178
  13286693.869 7   4911075.41926  22928078.172       -2246.566
  16818002.576 9  -2325118.91229  20842513.388        -369.965
 96  7  1  4  8 15.0010000  0  4G 1G25G23G21
  17733022.744 9   3007908.98429  22372050.012        -788.670
   4429700.794 9  -5647424.86629  21268000.999         390.989
  13320437.101 8   4937368.84426  22934502.155       -2252.564
  16823610.819 9  -2320748.84629  20843575.763        -377.846
 96  7  1  4  8 30.0010000  0  4G 1G25G23G21
  17744849.698 9   3017124.78529  22374297.796        -788.250
   4423890.470 9  -5651952.37029  21266895.724         383.812
  13354269.628 8   4963731.85626  22940940.647       -2258.346
  16829336.284 9  -2316287.45129  20844668.746        -385.515
 96  7  1  4  8 45.0010000  0  4G 1G25G23G21
  17756672.294 9   3026337.18729  22376554.604        -788.080
   4418188.155 9  -5656395.73329  21265809.157         376.547
  13388187.820 8   4990161.64126  22947398.477       -2264.096
  16835178.515 9  -2311735.07129  20845777.678        -393.405
 96  7  1  4  9  0.0010000  0  4G 1G25G23G21
  17768491.495 9   3035546.95029  22378799.599        -787.785
   4412595.576 9  -5660753.57929  21264744.833         369.127
  13422192.733 8   5016658.98226  22953866.019       -2269.872
  16841139.664 9  -2307090.01729  20846912.393        -401.419
 96  7  1  4  9 15.0010000  0  4G 1G25G23G21
  17780307.094 9   3044753.90029  22381050.981        -787.604
   4407114.136 9  -5665024.83129  21263707.312         361.789
  13456285.124 8   5043224.48026  22960354.248       -2275.734
  16847221.747 9  -2302350.73429  20848068.572        -409.439
 96  7  1  4  9 30.0010000  0  4G 1G25G23G21
  17792120.434 9   3053959.08529  22383296.816        -787.482
   4401741.750 9  -5669211.09529  21262676.176         354.598
  13490463.745 8   5069857.17626  22966861.423       -2281.451
  16853423.808 9  -2297517.96629  20849252.723        -417.455
 96  7  1  4  9 45.0010000  0  4G 1G25G23G21
  17803930.501 9   3063161.74429  22385547.898        -787.215
   4396476.323 9  -5673314.02029  21261678.916         347.450
  13524730.130 8   5096558.27426  22973376.692       -2287.438
  16859745.122 9  -2292592.25729  20850451.023        -425.424
 96  7  1  4 10  0.0010000  0  4G 1G25G23G21
  17815736.151 9   3072360.93329  22387794.392        -786.886
   4391317.082 9  -5677334.20629  21260697.365         340.386
  13559087.739 8   5123330.44826  22979918.014       -2293.596
  16866186.973 9  -2287572.63029  20851683.200        -433.516
 96  7  1  4 10 15.0010000  0  4G 1G25G23G21
  17827535.757 9   3081555.42829  22390039.178        -786.444
   4386265.513 9  -5681270.48229  21259734.252         333.098
  13593538.401 8   5150175.09426  22986470.008       -2299.787
  16872751.513 9  -2282457.42729  20852926.140        -441.718
 96  7  1  4 10 30.0010000  0  4G 1G25G23G21
  17839328.056 9   3090744.23229  22392281.866        -785.874
   4381323.207 9  -5685121.61929  21258795.152         325.909
  13628080.555 8   5177091.07726  22993040.469       -2305.895
  16879438.795 9  -2277246.55929  20854199.328        -449.868
 96  7  1  4 10 45.0010000  0  4G 1G25G23G21
  17851112.834 9   3099927.16229  22394522.215        -785.326
   4376488.441 9  -5688888.97029  21257878.267         318.777
  13662717.485 8   5204080.88626  22999633.475       -2312.344
  16886250.793 9  -2271938.51129  20855498.899        -458.374
 96  7  1  4 11  0.0010000  0  4G 1G25G23G21
  17862885.020 9   3109100.27929  22396767.780        -784.313
   4371759.259 9  -5692574.03329  21256975.112         311.769
  13697451.324 8   5231146.24726  23006245.308       -2318.895
  16893189.416 9  -2266531.79629  20856815.077        -466.775
 96  7  1  4 11 15.0010000  0  4G 1G25G23G21
  17874642.858 9   3118262.22829  22399002.074        -783.465
   4367136.444 9  -5696176.22229  21256097.290         304.639
  13732285.023 8   5258289.41426  23012872.130       -2325.611
  16900253.778 9  -2261027.10529  20858162.585        -475.133
 96  7  1  4 11 30.0010000  0  4G 1G25G23G21
  17886387.901 9   3127414.20629  22401235.797        -782.637
   4362618.167 9  -5699696.95129  21255239.164         297.709
  13767218.378 8   5285510.25526  23019519.308       -2332.189
  16907440.736 9  -2255426.86629  20859525.981        -483.162
 96  7  1  4 11 45.0010000  0  4G 1G25G23G21
  17898119.884 9   3136556.00629  22403466.943        -781.677
   4358203.543 9  -5703136.90729  21254396.088         290.940
  13802249.438 8   5312807.20626  23026189.421       -2338.520
  16914748.545 9  -2249732.48629  20860920.555        -491.193
 96  7  1  4 12  0.0010000  0  4G 1G25G23G21
  17909838.203 9   3145687.15729  22405700.786        -780.794
   4353888.993 9  -5706498.88429  21253574.716         284.259
  13837377.001 8   5340179.33226  23032874.703       -2345.069
  16922176.959 9  -2243944.11729  20862331.438        -499.262
 96  7  1  4 12 15.0010000  0  4G 1G25G23G21
  17921545.821 9   3154809.97529  22407926.475        -780.172
   4349676.696 9  -5709781.19229  21252773.701         277.407
  13872601.739 8   5367627.20126  23039574.644       -2351.484
  16929726.876 9  -2238061.05429  20863767.774        -507.311
 96  7  1  4 12 30.0010000  0  4G 1G25G23G21
  17933243.917 9   3163925.34229  22410153.603        -779.612
   4345566.230 9  -5712984.15029  21251985.756         270.607
  13907920.631 7   5395148.45626  23046295.811       -2357.696
  16937395.440 9  -2232085.55629  20865229.142        -515.169
 96  7  1  4 12 45.0010000  0  4G 1G25G23G21
  17944933.675 9   3173034.22229  22412380.312        -779.032
   4341556.099 9  -5716108.92629  21251228.001         264.111
  13943333.144 7   5422742.62226  23053033.917       -2363.965
  16945182.267 9  -2226017.90529  20866708.738        -523.026
 96  7  1  4 13  0.0010000  0  4G 1G25G23G21
  17956614.499 9   3182136.15429  22414601.294        -778.461
   4337644.082 9  -5719157.23429  21250482.237         257.533
  13978840.094 7   5450410.37525  23059792.228       -2370.236
  16953086.027 9  -2219859.12829  20868218.013        -530.822
 96  7  1  4 13 15.0010000  0  4G 1G25G23G21
  17968286.824 9   3191231.46429  22416823.836        -777.949
   4333828.928 9  -5722130.08229  21249757.789         251.129
  14014439.105 7   5478149.90625  23066565.139       -2376.209
  16961105.562 9  -2213610.14229  20869740.809        -538.435
 96  7  1  4 13 30.0010000  0  4G 1G25G23G21
  17979954.219 9   3200322.92429  22419040.981        -777.736
   4330110.000 9  -5725027.93729  21249049.619         244.674
  14050126.737 7   5505958.43925  23073357.057       -2382.131
  16969240.561 9  -2207271.19329  20871287.768        -546.314
 96  7  1  4 13 45.0010000  0  4G 1G25G23G21
  17991617.927 9   3209411.51329  22421260.045        -777.451
   4326488.925 9  -5727849.55729  21248361.356         238.047
  14085903.022 7   5533836.02025  23080166.034       -2388.053
  16977496.699 9  -2200837.83529  20872857.691        -554.579
 96  7  1  4 14  0.0010000  0  4G 1G25G23G21
  18003277.638 9   3218496.97429  22423477.250        -777.091
   4322968.781 9  -5730592.50929  21247690.510         231.352
  14121768.429 7   5561783.09726  23086990.839       -2393.969
  16985879.065 9  -2194306.12229  20874459.962        -562.986
 96  7  1  4 14 15.0010000  0  4G 1G25G23G21
  18014932.655 9   3227578.79729  22425697.633        -776.845
   4319550.905 9  -5733255.78229  21247042.149         224.292
  14157724.738 7   5589801.00626  23093834.681       -2400.101
  16994386.608 9  -2187676.88229  20876075.094        -571.323
 96  7  1  4 14 30.0010000  0  4G 1G25G23G21
  18026582.257 9   3236656.40729  22427913.579        -776.382
   4316239.071 9  -5735836.43129  21246410.246         217.227
  14193772.205 7   5617889.92726  23100687.787       -2406.176
  17003018.638 9  -2180950.62529  20877717.027        -579.587
 96  7  1  4 14 45.0010000  0  4G 1G25G23G21
  18038223.140 9   3245727.22029  22430130.664        -775.739
   4313033.626 9  -5738334.17729  21245801.368         210.146
  14229910.420 7   5646049.59626  23107564.876       -2412.289
  17011774.933 9  -2174127.54129  20879380.306        -587.947
 96  7  1  4 15  0.0010000  0  4G 1G25G23G21
  18049853.367 9   3254789.72829  22432345.530        -775.033
   4309934.388 9  -5740749.15129  21245213.025         203.064
  14266140.268 7   5674280.65126  23114464.030       -2418.381
  17020655.771 9  -2167207.41229  20881074.283        -596.164
 96  7  1  4 15 15.0010000  0  4G 1G25G23G21
  18061473.506 9   3263844.38429  22434554.671        -774.403
   4306943.429 9  -5743079.77429  21244639.192         195.723
  14302461.219 7   5702582.68626  23121371.847       -2424.391
  17029660.683 9  -2160190.61429  20882787.297        -604.505
 96  7  1  4 15 30.0010000  0  4G 1G25G23G21
  18073083.927 9   3272891.46629  22436762.612        -773.739
   4304064.344 9  -5745323.21429  21244093.570         188.085
  14338871.625 7   5730954.42326  23128301.040       -2430.367
  17038790.848 9  -2153076.20229  20884525.884        -612.874
 96  7  1  4 15 45.0010000  0  4G 1G25G23G21
  18084684.823 9   3281931.12829  22438978.379        -773.017
   4301300.134 9  -5747477.13229  21243566.205         180.465
  14375373.540 7   5759397.47826  23135249.840       -2436.532
  17048048.150 9  -2145862.72429  20886282.757        -621.350
 96  7  1  4 16  0.0010000  0  4G 1G25G23G21
  18096272.461 9   3290960.46529  22441178.915        -772.062
   4298649.208 9  -5749542.78329  21243062.974         173.013
  14411966.772 7   5787911.71726  23142214.049       -2442.558
  17057429.177 9  -2138552.85229  20888071.769        -629.378
 96  7  1  4 16 15.0010000  0  4G 1G25G23G21
  18107846.726 9   3299979.38329  22443383.499        -771.175
   4296109.972 9  -5751521.41829  21242578.959         165.565
  14448649.886 7   5816495.96526  23149194.536       -2448.523
  17066927.949 9  -2131151.21429  20889878.798        -637.138
 96  7  1  4 16 30.0010000  0  4G 1G25G23G21
  18119406.628 9   3308987.11529  22445577.140        -770.241
   4293681.909 9  -5753413.39529  21242117.668         158.113
  14485422.500 7   5845149.94226  23156187.915       -2454.497
  17076542.765 9  -2123659.15229  20891707.442        -644.938
 96  7  1  4 16 45.0010000  0  4G 1G25G23G21
  18130952.546 9   3317983.93529  22447773.540        -769.317
   4291364.902 9  -5755218.84829  21241678.112         150.843
  14522284.875 7   5873873.87726  23163205.247       -2460.462
  17086276.118 9  -2116074.73229  20893561.149        -652.842
 96  7  1  4 17  0.0010000  0  4G 1G25G23G21
  18142487.396 9   3326972.13829  22449970.719        -768.680
   4289156.338 9  -5756939.80729  21241258.193         143.697
  14559236.626 7   5902667.44626  23170241.106       -2466.425
  17096128.392 9  -2108397.65429  20895436.920        -660.777
 96  7  1  4 17 15.0010000  0  4G 1G25G23G21
  18154014.416 9   3335954.24029  22452167.868        -768.280
   4287054.338 9  -5758577.71829  21240858.749         136.587
  14596278.347 7   5931531.11826  23177280.353       -2472.430
  17106100.076 9  -2100627.50929  20897333.767        -668.765
 96  7  1  4 17 30.0010000  0  4G 1G25G23G21
  18165535.376 9   3344931.61029  22454356.622        -767.859
   4285058.769 9  -5760132.69229  21240474.745         129.548
  14633410.948 7   5960465.58826  23184350.598       -2478.634
  17116193.097 9  -2092762.83829  20899253.848        -676.912
 96  7  1  4 17 45.0010000  0  4G 1G25G23G21
  18177051.301 9   3353905.05629  22456549.424        -767.569
   4283167.842 9  -5761606.14729  21240118.952         122.721
  14670638.818 7   5989474.33926  23191436.013       -2485.041
  17126408.736 9  -2084802.61229  20901198.331        -685.058
 96  7  1  4 18  0.0010000  0  4G 1G25G23G21
  18188561.824 9   3362874.28429  22458738.479        -767.274
   4281376.628 9  -5763001.89029  21239775.599         116.036
  14707962.511 7   6018557.75526  23198537.557       -2491.481
  17136744.819 9  -2076748.53029  20903163.951        -693.073
 96  7  1  4 18 15.0010000  0  4G 1G25G23G21
  18200069.162 9   3371841.04829  22460929.902        -767.048
   4279687.390 9  -5764318.16929  21239452.333         109.218
  14745382.715 7   6047716.37226  23205661.165       -2497.849
  17147200.236 9  -2068601.47029  20905156.221        -701.017
 96  7  1  4 18 30.0010000  0  4G 1G25G23G21
  18211573.229 9   3380805.25029  22463118.027        -766.855
   4278100.566 9  -5765554.64729  21239153.320         102.383
  14782900.095 7   6076950.67726  23212796.196       -2504.432
  17157777.313 9  -2060359.60429  20907168.698        -709.321
 96  7  1  4 18 45.0010000  0  4G 1G25G23G21
  18223074.709 9   3389767.45029  22465305.583        -766.672
   4276616.530 9  -5766711.05029  21238870.376          95.533
  14820517.589 7   6106263.00625  23219961.475       -2511.206
  17168480.010 9  -2052019.86229  20909201.831        -717.743
 96  7  1  4 19  0.0010000  0  4G 1G25G23G21
  18234572.815 9   3398727.01729  22467495.806        -766.534
   4275233.424 9  -5767788.79129  21238604.640          88.833
  14858235.103 7   6135653.24425  23227137.427       -2517.826
  17179309.435 9  -2043581.37329  20911262.154        -726.195
 96  7  1  4 19 15.0010000  0  4G 1G25G23G21
  18246067.840 9   3407684.18129  22469680.364        -766.230
   4273951.214 9  -5768787.89829  21238364.027          82.097
  14896051.501 7   6165120.57625  23234329.329       -2524.407
  17190266.026 9  -2035043.79429  20913349.819        -734.674
 96  7  1  4 19 30.0010000  0  5G 1G25G15G23G21
  18257557.981 9   3416637.54029  22471869.419        -765.798
   4272769.492 9  -5769708.71629  21238138.643          75.432
  -6699731.935 7  -5085114.36125  24484319.229        1825.094
  14933966.403 7   6194664.69825  23241548.391       -2530.869
  17201349.602 9  -2026407.26229  20915457.060        -743.147
 96  7  1  4 19 45.0010000  0  5G 1G25G15G23G21
  18269040.963 9   3425585.32429  22474053.377        -765.308
   4271688.322 9  -5770551.19329  21237931.276          68.691
  -6727053.631 7  -5106403.95325  24479122.446        1817.771
  14971977.566 7   6224283.78925  23248773.449       -2537.231
  17212560.459 9  -2017671.56029  20917588.195        -751.688
 96  7  1  4 20  0.0010000  0  5G 1G25G15G23G21
  18280515.912 9   3434526.87629  22476239.733        -764.717
   4270709.609 9  -5771313.81229  21237746.544          61.673
  -6754266.024 7  -5127608.42625  24473941.523        1810.506
  15010080.082 7   6253974.06425  23256031.964       -2543.141
  17223899.862 9  -2008835.67729  20919746.311        -760.313
 96  7  1  4 20 15.0010000  0  5G 1G25G15G23G21
  18291980.009 9   3443459.95229  22478418.954        -763.851
   4269837.704 9  -5771993.21029  21237581.298          54.568
  -6781369.650 7  -5148728.15825  24468782.065        1803.344
  15048268.034 8   6283730.90525  23263295.156       -2548.616
  17235368.682 9  -1999898.95329  20921931.708        -768.888
 96  7  1  4 20 30.0010000  0  5G 1G25G15G23G21
  18303432.324 9   3452383.86729  22480602.852        -763.154
   4269073.502 9  -5772588.68829  21237434.400          47.436
  -6808364.383 7  -5169763.03125  24463649.528        1796.016
  15086540.455 8   6313553.57925  23270578.764       -2554.293
  17246968.495 9  -1990860.16629  20924133.834        -777.765
 96  7  1  4 20 45.0010000  0  5G 1G25G15G23G21
  18314874.403 9   3461299.79529  22482775.358        -762.525
   4268414.247 9  -5773102.40429  21237310.256          40.395
  -6835249.650 7  -5190712.58225  24458534.859        1788.617
  15124897.319 8   6343442.10925  23277884.556       -2559.982
  17258701.866 9  -1981717.29129  20926370.525        -786.717
 96  7  1  4 21  0.0010000  0  5G 1G25G15G23G21
  18326306.453 9   3470207.90529  22484952.571        -761.883
   4267859.692 9  -5773534.50529  21237202.720          33.500
  -6862025.220 7  -5211576.66725  24453437.398        1781.387
  15163338.282 8   6373396.13025  23285194.156       -2565.470
  17270567.554 9  -1972471.33329  20928629.551        -795.439
 96  7  1  4 21 15.0010000  0  5G 1G25G15G23G21
  18337732.407 9   3479111.26629  22487129.364        -761.596
   4267410.733 9  -5773884.33329  21237120.248          26.433
  -6888690.444 7  -5232354.72725  24448360.772        1774.001
  15201860.896 8   6403413.70325  23292521.653       -2570.877
  17282565.463 9  -1963122.32429  20930915.349        -804.167
 96  7  1  4 21 30.0010000  0  5G 1G25G15G23G21
  18349153.494 9   3488010.80429  22489299.922        -761.231
   4267066.311 9  -5774152.71629  21237051.835          19.475
  -6915245.163 7  -5253046.69825  24443312.807        1766.680
  15240465.109 8   6433494.92225  23299869.416       -2576.342
  17294694.004 9  -1953671.53129  20933223.541        -812.960
 96  7  1  4 21 45.0010000  0  5G 1G25G15G23G21
  18360568.993 9   3496906.00529  22491469.280        -760.806
   4266828.150 9  -5774338.28829  21237007.556          12.271
  -6941689.399 7  -5273652.61925  24438278.032        1759.247
  15279151.688 7   6463640.30725  23307231.389       -2581.858
  17306955.283 9  -1944117.32829  20935555.147        -821.850
 96  7  1  4 22  0.0010000  0  5G 1G25G15G23G21
  18371975.719 9   3505794.35429  22493642.775        -760.155
   4266698.953 9  -5774438.94529  21236980.454           4.960
  -6968023.130 7  -5294172.43524  24433264.633        1751.846
  15317920.582 8   6493849.83625  23314611.051       -2587.340
  17319349.607 9  -1934459.42529  20937912.775        -830.729
 96  7  1  4 22 15.0010000  0  5G 1G25G15G23G21
  18383373.758 9   3514675.94829  22495810.155        -759.612
   4266678.654 9  -5774454.76229  21236984.412          -2.206
  -6994246.209 7  -5314605.97224  24428275.787        1744.450
  15356773.751 8   6524125.01725  23322006.001       -2593.145
  17331875.493 9  -1924699.01029  20940294.386        -839.399
 96  7  1  4 22 30.0010000  0  5G 1G25G15G23G21
  18394764.384 9   3523551.77029  22497977.954        -759.156
   4266762.180 9  -5774389.67729  21236996.134          -8.861
  -7020357.797 7  -5334952.68624  24423309.035        1737.092
  15395717.182 7   6554470.55825  23329416.361       -2599.306
  17344530.993 9  -1914837.59829  20942701.120        -847.945
 96  7  1  4 22 45.0010000  0  5G 1G25G15G23G21
  18406147.709 9   3532421.90229  22500142.545        -758.591
   4266943.956 9  -5774248.02029  21237027.702         -15.363
  -7046358.092 7  -5355212.63725  24418355.115        1729.607
  15434753.304 7   6584888.28825  23336844.289       -2605.453
  17357313.725 9  -1904877.04329  20945135.195        -856.418
 96  7  1  4 23  0.0010000  0  5G 1G25G15G23G21
  18417522.629 9   3541285.48029  22502308.306        -758.081
   4267224.241 9  -5774029.61229  21237080.225         -22.004
  -7072246.935 7  -5375385.74024  24413429.135        1722.218
  15473882.149 7   6615378.27325  23344289.095       -2611.655
  17370223.634 9  -1894817.37629  20947594.962        -864.864
 96  7  1  4 23 15.0010000  0  5G 1G25G15G23G21
  18428890.910 9   3550143.89629  22504471.039        -757.723
   4267605.052 9  -5773732.88029  21237154.814         -28.799
  -7098024.355 7  -5395472.00624  24408527.858        1714.718
  15513103.396 7   6645940.25125  23351746.372       -2617.850
  17383261.676 9  -1884657.88429  20950074.006        -873.560
 96  7  1  4 23 30.0010000  0  5G 1G25G15G23G21
  18440252.064 9   3558996.75929  22506633.412        -757.054
   4268088.514 9  -5773356.15329  21237249.788         -35.628
  -7123688.946 7  -5415470.45524  24403645.198        1707.205
  15552418.186 7   6676575.15325  23359230.211       -2624.168
  17396429.460 9  -1874397.26729  20952583.029        -882.124
 96  7  1  4 23 45.0010000  0  5G 1G25G15G23G21
  18451600.793 9   3567839.93329  22508791.588        -756.156
   4268674.281 9  -5772899.69529  21237359.812         -42.483
  -7149241.633 7  -5435381.64824  24398784.603        1699.775
  15591828.415 7   6707284.42825  23366733.687       -2630.507
  17409725.828 9  -1864036.45929  20955111.748        -890.717
 96  7  1  4 24  0.0010000  0  5G 1G25G15G23G21
  18462936.100 9   3576672.64129  22510949.764        -755.321
   4269363.280 9  -5772362.81229  21237487.613         -49.383
  -7174681.972 7  -5455205.28824  24393936.899        1692.182
  15631334.565 7   6738068.42125  23374246.876       -2636.939
  17423149.376 9  -1853576.55229  20957664.960        -899.118
 96  7  1  4 24 15.0010000  0  5G 1G25G15G23G21
  18474260.965 9   3585497.21229  22513108.299        -754.785
   4270153.773 9  -5771746.84529  21237639.128         -56.039
  -7200009.387 7  -5474940.89725  24389119.234        1684.746
  15670936.425 7   6768927.01425  23381791.722       -2643.368
  17436698.181 9  -1843019.04329  20960244.225        -907.442
 96  7  1  4 24 30.0010000  0  5G 1G25G15G23G21
  18485579.707 9   3594317.02429  22515262.398        -754.412
   4271043.879 9  -5771053.24229  21237806.323         -62.699
  -7225223.916 7  -5494588.60125  24384317.698        1677.214
  15710635.779 7   6799861.54425  23389338.698       -2649.856
  17450371.403 9  -1832364.56629  20962843.785        -915.673
 96  7  1  4 24 45.0010000  0  5G 1G25G15G23G21
  18496893.697 9   3603133.10329  22517411.970        -754.134
   4272035.717 9  -5770280.37229  21238000.348         -69.621
  -7250325.311 7  -5514148.15325  24379547.460        1669.614
  15750431.714 7   6830871.31725  23396915.682       -2656.214
  17464169.319 9  -1821612.92029  20965471.196        -924.025
 96  7  1  4 25  0.0010000  0  5G 1G25G15G23G21
  18508202.720 9   3611945.33129  22519564.840        -753.843
   4273133.602 9  -5769424.86729  21238205.256         -76.809
  -7275314.156 7  -5533619.94925  24374791.763        1662.150
  15790320.458 7   6861953.48425  23404501.481       -2662.286
  17478092.005 9  -1810764.05429  20968119.863        -932.432
 96  7  1  4 25 15.0010000  0  5G 1G25G15G23G21
  18519509.599 9   3620755.89529  22521716.750        -753.741
   4274340.173 9  -5768484.68629  21238435.977         -84.057
  -7300189.791 7  -5553003.59225  24370059.539        1654.560
  15830300.890 7   6893107.05125  23412112.282       -2668.427
  17492142.137 9  -1799815.88129  20970791.403        -940.927
 96  7  1  4 25 30.0010000  0  5G 1G25G15G23G21
  18530812.283 9   3629563.17929  22523866.532        -753.235
   4275655.240 9  -5767459.94929  21238686.753         -91.218
  -7324951.533 7  -5572298.41225  24365345.302        1647.022
  15870372.419 7   6924331.62425  23419740.891       -2674.407
  17506319.619 9  -1788768.44829  20973493.702        -949.308
 96  7  1  4 25 45.0010000  0  5G 1G25G15G23G21
  18542107.034 9   3638364.25929  22526017.543        -752.767
   4277076.782 9  -5766352.23429  21238957.256         -98.290
  -7349599.958 7  -5591505.04024  24360653.461        1639.430
  15910533.555 7   6955626.02125  23427380.682       -2680.407
  17520620.859 9  -1777624.58829  20976215.039        -957.508
 96  7  1  4 26  0.0010000  0  5G 1G25G15G23G21
  18553395.859 9   3647160.73329  22528165.915        -752.448
   4278604.022 9  -5765162.17829  21239247.305        -105.282
  -7374134.791 7  -5610623.06124  24355989.259        1631.887
  15950784.143 7   6986990.13925  23435038.371       -2686.311
  17535045.236 9  -1766384.76529  20978956.611        -965.686
 96  7  1  4 26 15.0010000  0  5G 1G25G15G23G21
  18564680.936 9   3655954.29129  22530310.930        -752.261
   4280236.539 9  -5763890.08829  21239555.851        -112.348
  -7398555.227 7  -5629651.99824  24351339.359        1624.177
  15991121.766 7   7018422.02225  23442715.876       -2692.185
  17549592.800 9  -1755048.94029  20981728.941        -974.017
 96  7  1  4 26 30.0010000  0  5G 1G25G15G23G21
  18575963.743 9   3664746.07729  22532457.504        -752.070
   4281973.142 9  -5762536.87929  21239889.580        -119.209
  -7422860.796 7  -5648591.39524  24346712.002        1616.538
  16031546.836 7   7049922.05925  23450407.621       -2697.944
  17564265.374 9  -1743615.71229  20984515.752        -982.375
 96  7  1  4 26 45.0010000  0  5G 1G25G15G23G21
  18587241.602 9   3673534.01629  22534606.596        -751.613
   4283813.195 9  -5761103.06729  21240239.558        -126.078
  -7447051.530 7  -5667441.32025  24342110.518        1608.946
  16072058.833 7   7081489.87225  23458120.201       -2703.595
  17579064.548 9  -1732083.84529  20987335.750        -990.816
 96  7  1  4 27  0.0010000  0  5G 1G25G15G23G21
  18598512.291 9   3682316.37129  22536749.963        -751.193
   4285755.787 9  -5759589.36129  21240609.412        -132.957
  -7471128.078 7  -5686202.24025  24337526.931        1601.217
  16112655.448 7   7113123.60725  23465844.414       -2709.293
  17593992.509 9  -1720451.61529  20990173.945        -999.587
 96  7  1  4 27 15.0010000  0  5G 1G25G15G23G21
  18609776.141 9   3691093.37729  22538893.299        -750.692
   4287799.094 9  -5757997.16629  21240998.093        -139.488
  -7495089.442 7  -5704873.44825  24332964.299        1593.535
  16153337.997 7   7144824.29125  23473581.757       -2715.039
  17609052.780 9  -1708716.29329  20993041.160       -1008.464
 96  7  1  4 27 30.0020000  0  5G 1G25G15G23G21
  18621032.540 9   3699864.59829  22541035.466        -749.990
   4289938.788 9  -5756329.86629  21241404.222        -145.725
  -7518937.273 7  -5723456.16125  24328430.658        1585.978
  16194110.291 7   7176594.87625  23481344.943       -2720.785
  17624246.403 9  -1696877.07029  20995935.207       -1017.140
 96  7  1  4 27 45.0020000  0  6G 1G25G15G22G23G21
  18632280.070 9   3708628.90929  22543174.455        -749.693
   4292174.240 9  -5754587.95429  21241831.276        -152.285
  -7542667.786 7  -5741947.50125  24323919.321        1578.183
  -8702823.135 6  -4026252.94725  24561535.123        3144.776
  16234968.002 7   7208432.06325  23489117.692       -2726.760
  17639570.730 9  -1684936.01729  20998850.119       -1025.976
 96  7  1  4 28  0.0020000  0  6G 1G25G15G22G23G21
  18643524.721 9   3717390.97329  22545317.312        -749.656
   4294507.371 9  -5752769.92029  21242270.142        -158.850
  -7566282.300 7  -5760348.40525  24319420.785        1570.356
  -8750002.761 6  -4063016.22425  24552565.393        3145.822
  16275914.416 7   7240338.37625  23496912.566       -2732.767
  17655027.491 9  -1672891.76629  21001788.474       -1034.978
 96  7  1  4 28 15.0020000  0  6G 1G25G15G22G23G21
  18654766.201 9   3726150.56529  22547456.481        -749.290
   4296937.372 9  -5750876.41329  21242734.791        -165.209
  -7589781.659 7  -5778659.56725  24314946.893        1562.784
  -8797201.671 6  -4099794.58425  24543588.287        3147.261
  16316946.813 7   7272311.70025  23504720.121       -2738.258
  17670618.869 9  -1660742.63729  21004754.771       -1043.977
 96  7  1  4 28 30.0020000  0  6G 1G25G15G22G23G21
  18666003.590 9   3734906.97729  22549592.112        -749.079
   4299464.599 9  -5748907.13429  21243219.045        -171.734
  -7613165.526 7  -5796880.78425  24310494.825        1555.071
  -8844418.567 6  -4136586.94625  24534600.659        3148.356
  16358063.840 7   7304350.91825  23512545.274       -2744.039
  17686349.959 9  -1648484.63029  21007749.698       -1053.481
 96  7  1  4 28 45.0020000  0  6G 1G25G15G22G23G21
  18677237.788 9   3743660.89729  22551732.061        -748.786
   4302090.423 9  -5746861.04029  21243714.902        -178.400
  -7636433.591 7  -5815011.73125  24306071.537        1547.325
  -8891651.354 6  -4173391.64625  24525618.278        3149.360
  16399267.247 7   7336457.48625  23520380.829       -2749.691
  17702224.177 9  -1636115.09729  21010772.925       -1063.073
 96  7  1  4 29  0.0020000  0  6G 1G25G15G22G23G21
  18688466.312 9   3752410.38129  22553868.352        -748.394
   4304817.241 9  -5744736.25229  21244237.470        -185.127
  -7659585.622 7  -5833052.26225  24301669.444        1539.589
  -8938899.496 6  -4210208.35925  24516624.294        3150.448
  16440554.770 7   7368629.57125  23528233.413       -2755.276
  17718241.778 9  -1623633.84229  21013817.857       -1072.492
 96  7  1  4 29 15.0020000  0  6G 1G25G15G22G23G21
  18699689.580 9   3761155.78529  22556007.251        -747.980
   4307645.031 9  -5742532.75829  21244773.469        -191.815
  -7682620.752 7  -5851001.73625  24297276.675        1531.812
  -8986162.526 6  -4247036.66925  24507633.398        3151.333
  16481926.683 7   7400867.42025  23536114.117       -2760.902
  17734398.840 9  -1611043.91829  21016895.406       -1081.670
 96  7  1  4 29 30.0020000  0  6G 1G25G15G22G23G21
  18710904.826 9   3769894.94029  22558135.838        -747.368
   4310572.295 9  -5740251.77529  21245329.854        -198.528
  -7705539.244 7  -5868860.34025  24292922.190        1524.068
  -9033441.512 6  -4283877.40125  24498635.518        3152.444
  16523380.228 7   7433168.86525  23543999.348       -2766.193
  17750690.835 9  -1598348.84129  21019995.530       -1090.518
 96  7  1  4 29 45.0020000  0  6G 1G25G15G22G23G21
  18722110.641 9   3778626.73629  22560275.666        -746.767
   4313603.393 9  -5737889.88029  21245908.244        -205.578
  -7728340.600 7  -5886627.63625  24288574.870        1516.182
  -9080736.280 7  -4320730.49525  24489635.148        3153.517
  16564914.567 7   7465533.27725  23551906.434       -2771.619
  17767114.543 9  -1585551.14029  21023116.879       -1099.263
 96  7  1  4 30  0.0020000  0  6G 1G25G15G22G23G21
  18733307.817 9   3787351.80229  22562400.355        -746.138
   4316740.640 9  -5735445.26229  21246504.981        -212.567
  -7751024.216 7  -5904303.15825  24284261.815        1508.365
  -9128044.712 7  -4357594.14925  24480627.314        3154.295
  16606529.751 7   7497960.69425  23559828.930       -2776.979
  17783669.180 9  -1572651.43729  21026270.306       -1107.888
 96  7  1  4 30 15.0020000  0  6G 1G25G15G22G23G21
  18744492.772 9   3796067.34529  22564531.490        -745.247
   4319978.730 9  -5732922.06629  21247121.714        -219.196
  -7773591.795 7  -5921888.26225  24279975.952        1500.604
  -9175364.682 7  -4394466.83425  24471620.889        3155.020
  16648224.483 7   7530450.08425  23567756.102       -2782.329
  17800351.207 9  -1559652.44529  21029446.337       -1116.359
 96  7  1  4 30 30.0020000  0  6G 1G25G15G22G23G21
  18755663.588 9   3804771.86829  22566651.202        -744.261
   4323316.402 9  -5730321.28629  21247760.511        -225.827
  -7796042.235 7  -5939382.10525  24275699.053        1492.749
  -9222694.780 7  -4431347.40225  24462620.460        3155.744
  16690001.452 7   7563003.54625  23575704.859       -2787.921
  17817159.643 9  -1546554.94429  21032640.416       -1124.702
 96  7  1  4 30 45.0020000  0  6G 1G25G15G22G23G21
  18766820.978 9   3813465.92629  22568773.553        -743.369
   4326753.218 9  -5727643.24329  21248414.359        -232.379
  -7818374.814 7  -5956784.20025  24271449.315        1484.978
  -9270035.742 7  -4468236.44425  24453608.789        3156.453
  16731864.574 7   7595624.14426  23583674.722       -2793.777
  17834090.020 9  -1533362.44229  21035862.555       -1132.557
 96  7  1  4 31  0.0020000  0  6G 1G25G15G22G23G21
  18777964.343 9   3822149.04129  22570897.823        -742.348
   4330288.567 9  -5724888.42029  21249083.076        -238.811
  -7840589.636 7  -5974094.43125  24267217.745        1477.157
  -9317387.995 7  -4505134.26525  24444602.754        3157.401
  16773814.544 7   7628312.39526  23591660.024       -2799.419
  17851134.827 9  -1520080.75829  21039105.380       -1139.938
 96  7  1  4 31 15.0020000  0  6G 1G25G15G22G23G21
  18789093.135 9   3830820.82029  22573018.884        -741.562
   4333918.232 9  -5722060.10629  21249771.729        -245.116
  -7862687.603 7  -5991313.60925  24263015.854        1469.266
  -9364755.810 7  -4542044.24125  24435586.046        3158.458
  16815851.203 7   7661068.22126  23599655.968       -2805.448
  17868288.856 9  -1506713.98529  21042371.409       -1147.291
 96  7  1  4 31 30.0020000  0  6G 1G25G15G22G23G21
  18800211.301 9   3839484.30429  22575134.520        -740.881
   4337642.277 9  -5719158.25529  21250480.019        -251.426
  -7884667.389 7  -6008440.73425  24258833.119        1461.362
  -9412141.725 7  -4578968.34825  24426572.636        3159.706
  16857977.212 7   7693893.65626  23607674.097       -2811.396
  17885554.743 9  -1493260.02829  21045658.094       -1154.888
